GFSFLT1_850_spd_000.txt.gz
Wind_Speed
33 37 43 47 46 45 41 39 37 36 37 36 35 33 30 27 24 21 17 16 16 15 15 12 11 9 10 10 9 9 10 8 8
36 41 47 47 48 47 45 42 41 40 40 39 38 36 33 30 26 22 19 17 17 17 15 14 11 12 11 11 10 12 13 12 11
36 41 39 46 47 49 49 45 44 43 42 42 42 40 38 34 31 25 20 19 19 17 15 15 15 15 13 13 12 12 13 14 12
37 41 40 44 49 50 50 49 49 48 45 45 45 44 43 40 36 32 26 23 21 20 17 17 17 16 15 15 13 12 12 11 11
29 36 41 44 44 46 48 50 52 53 49 48 48 47 46 45 41 37 33 28 24 20 19 17 17 16 16 16 15 12 11 10 9
27 33 36 39 39 42 44 46 51 54 54 51 50 51 49 47 46 42 38 32 26 20 20 19 17 18 17 15 13 11 10 9 9
28 34 37 37 39 39 39 40 44 48 52 54 55 52 51 50 48 48 43 33 28 20 20 20 19 18 16 15 13 12 11 12 13
26 31 33 37 39 39 37 37 40 43 46 49 52 54 54 52 51 51 45 32 30 21 21 22 20 19 18 16 16 14 12 13 15
30 34 39 38 36 37 35 34 36 39 41 42 44 48 52 52 48 50 44 27 32 27 25 23 23 24 21 19 18 13 13 14 17
35 39 41 37 34 30 26 26 29 33 34 36 39 40 43 44 44 44 39 26 23 37 26 25 26 27 24 23 19 14 16 18 21
39 39 32 31 24 22 20 18 19 21 25 28 31 33 35 37 37 38 37 28 30 33 32 29 27 25 24 25 21 18 20 22 24
19 24 19 15 8 6 2 3 7 11 15 20 24 27 29 31 31 29 37 26 32 32 38 31 27 24 23 24 24 22 22 24 26
10 15 17 18 13 9 3 2 4 7 12 17 18 21 21 23 24 27 26 26 29 35 37 36 32 24 19 17 25 26 28 25 24
25 23 16 11 6 2 1 2 4 6 7 10 10 12 17 19 19 27 27 26 28 32 31 32 26 24 26 30 35 27 30 24 22
27 23 19 15 10 8 9 12 13 12 14 9 8 11 13 17 18 22 25 24 25 28 30 28 20 27 31 29 18 28 25 19 20
19 17 14 14 14 13 14 16 16 12 14 11 9 9 10 15 21 22 21 19 15 12 8 11 16 26 27 22 22 22 15 17 21
14 13 12 13 15 19 12 11 12 10 13 10 9 7 10 13 16 19 17 16 16 6 7 15 21 21 17 18 19 16 17 18 18
13 13 12 12 11 12 10 8 6 7 9 10 10 8 9 13 19 22 22 21 13 9 18 19 16 17 15 18 17 16 16 16 17
11 9 8 10 10 10 8 6 4 5 9 9 7 13 18 19 22 17 19 18 17 19 16 13 13 16 15 13 13 14 14 15 17
11 10 8 6 5 4 6 4 6 6 11 16 15 13 14 17 10 13 19 19 16 15 15 15 15 11 9 8 9 10 11 11 12

GFSFLT1_850_spd_003.txt.gz
Wind_Speed
31 36 36 36 38 40 39 38 36 35 34 34 34 34 33 31 29 27 24 23 20 18 18 15 13 13 12 12 11 9 8 6 7
29 36 41 42 41 42 42 39 36 37 37 36 37 38 35 34 32 31 30 26 23 20 19 18 16 15 12 12 12 11 11 11 11
32 34 37 39 43 47 44 40 37 36 37 38 39 40 37 36 35 33 30 26 24 21 19 19 18 16 15 14 12 12 14 13 14
28 32 38 41 42 48 46 43 43 41 39 38 40 41 42 41 39 35 31 29 24 21 22 18 20 18 16 16 14 13 13 13 14
19 28 36 35 34 36 40 46 45 46 44 42 40 42 44 45 44 39 33 34 28 19 19 21 19 19 18 17 16 15 14 14 14
13 21 25 29 28 31 34 38 44 46 47 46 44 44 46 47 48 45 41 42 31 17 14 16 21 22 21 19 18 17 16 14 15
14 19 27 29 28 31 31 31 34 39 45 45 43 46 48 50 49 47 45 41 28 26 17 14 24 24 23 21 19 18 16 15 16
14 19 23 31 31 30 31 32 32 33 34 38 40 44 47 48 43 43 44 42 41 33 36 36 28 27 26 23 21 19 18 17 18
19 24 29 32 30 32 32 29 28 28 28 29 31 35 37 36 37 41 40 40 42 45 26 13 43 35 31 26 25 20 18 19 21
25 29 31 32 35 32 27 23 21 20 19 18 21 23 26 29 31 32 34 35 36 42 34 25 46 40 35 32 27 22 20 22 23
16 16 20 21 19 19 14 10 7 7 6 6 10 14 18 23 23 25 26 28 34 42 33 29 36 38 35 31 28 24 21 22 22
12 14 10 7 10 12 15 14 10 6 3 0 5 10 14 17 17 18 22 26 31 37 29 28 36 37 30 26 25 26 23 25 25
12 16 22 28 27 25 22 19 16 12 9 5 1 5 8 9 12 15 15 23 30 36 27 30 34 34 25 22 21 23 28 29 35
27 28 32 29 25 25 22 17 12 7 2 2 7 8 9 12 13 14 16 25 32 34 25 29 34 32 29 22 18 22 22 29 27
35 33 25 23 22 19 16 12 2 4 8 9 10 13 11 14 15 18 21 26 28 24 22 21 22 23 21 16 19 27 23 21 17
26 23 22 15 11 7 5 3 1 4 10 14 11 10 12 15 15 19 19 22 24 18 16 20 20 19 19 22 21 24 20 19 15
18 15 15 14 11 9 5 2 2 7 10 9 11 10 12 14 18 19 19 20 19 14 13 12 13 12 18 19 19 16 18 13 12
17 15 14 11 8 7 5 2 4 7 7 9 6 12 16 16 15 16 15 19 18 18 16 14 16 16 14 12 13 13 10 10 11
17 14 11 8 6 5 5 4 4 4 7 9 15 16 17 15 13 14 17 18 20 18 16 12 13 12 10 9 11 11 11 13 17
12 10 7 4 4 4 5 5 4 7 9 13 18 11 8 10 12 13 13 19 24 22 14 11 9 6 9 11 11 10 12 15 15

GFSFLT1_850_spd_009.txt.gz
Wind_Speed
18 29 32 35 38 38 39 38 38 36 36 35 34 31 30 29 27 24 23 23 17 16 13 12 15 16 14 12 10 8 8 6 5
15 24 31 37 38 38 38 39 41 41 37 37 35 31 31 31 29 28 25 23 22 18 18 17 18 16 15 13 11 10 10 7 10
17 20 27 35 37 37 37 38 39 40 39 37 35 32 31 29 30 30 30 27 26 23 23 24 20 21 17 16 15 13 11 11 10
22 19 25 31 36 38 39 37 38 40 40 38 37 35 32 31 31 30 30 33 32 31 29 25 24 26 20 19 17 12 9 12 14
20 21 25 27 33 36 38 40 39 39 38 37 36 34 35 37 35 33 33 33 34 33 35 32 30 28 25 25 17 14 12 11 14
29 11 15 22 27 36 40 40 41 40 40 37 34 35 34 35 36 38 37 35 34 36 34 35 32 31 30 27 22 20 15 16 17
15 9 8 18 26 32 40 41 43 43 41 37 35 33 34 36 39 39 37 37 38 37 38 37 37 34 34 32 27 24 17 17 19
24 22 16 19 25 30 36 38 41 43 40 39 35 36 34 37 37 35 35 36 40 37 38 39 40 38 38 38 34 25 21 20 22
24 24 18 19 23 28 33 37 38 41 43 38 37 36 38 35 35 34 36 38 37 38 38 36 40 42 41 41 35 24 23 25 21
30 32 31 20 23 29 33 36 35 36 40 38 36 38 35 34 32 35 36 36 36 39 37 34 41 46 44 42 33 26 26 25 21
32 35 37 21 24 28 31 31 30 32 32 39 37 35 34 32 34 32 32 32 34 34 29 31 39 43 43 27 25 26 26 27 23
33 31 29 20 25 30 32 33 33 33 31 32 31 28 30 31 30 28 26 29 28 28 26 29 30 33 37 29 23 22 22 26 25
22 23 23 20 25 32 31 32 31 32 30 29 29 27 26 25 26 25 24 22 24 22 21 23 19 21 21 21 20 20 23 23 21
22 23 20 22 26 31 32 31 31 31 30 28 25 23 23 23 22 22 19 19 18 18 18 18 19 20 19 19 19 16 18 18 17
17 21 23 27 28 29 29 31 33 31 29 27 26 25 22 22 20 18 19 17 15 17 16 16 16 16 17 14 17 18 21 17 17
16 18 25 26 27 31 27 27 28 27 24 26 24 23 21 21 21 21 18 17 18 17 15 13 12 12 12 15 15 17 19 19 23
27 27 28 28 27 29 24 20 19 18 19 19 20 21 19 19 19 19 17 17 15 12 10 10 11 10 11 9 7 8 8 11 13
23 25 27 24 20 21 19 18 15 14 14 15 14 15 16 19 15 15 13 14 12 12 12 11 8 6 5 7 8 8 8 8 9
18 20 22 22 19 17 16 14 14 12 14 15 16 18 16 15 15 15 12 13 14 13 10 12 12 8 6 8 8 7 8 11 14
18 17 18 19 17 16 15 14 11 11 14 14 15 14 14 13 13 12 13 12 11 12 15 10 9 7 9 11 7 10 11 12 13

GFSFLT1_850_spd_012.txt.gz
Wind_Speed
37 39 36 39 42 42 44 46 42 41 42 41 38 35 37 32 34 31 30 25 22 23 20 18 22 18 18 14 12 15 13 11 11
27 37 39 38 40 43 42 45 45 44 42 42 40 36 38 35 32 37 29 33 27 24 25 19 24 23 22 19 18 13 14 11 9
19 20 35 36 38 41 41 42 45 43 43 43 41 38 39 37 35 34 38 31 31 30 22 24 23 27 26 22 19 19 17 13 17
23 17 24 34 39 40 41 39 43 45 44 42 42 40 38 39 39 37 36 36 34 33 31 28 28 27 28 23 22 21 19 18 15
20 30 25 29 32 39 41 42 42 44 44 44 44 42 40 40 39 39 39 40 39 37 34 35 34 36 32 29 26 25 22 20 23
25 12 7 32 32 40 42 44 43 43 45 45 42 42 43 43 41 41 41 42 41 40 38 40 40 39 38 35 33 32 26 21 20
22 18 18 26 23 35 43 46 47 46 45 45 44 43 44 44 44 44 42 42 41 39 42 42 42 43 41 37 37 35 30 25 22
22 15 18 15 17 30 44 45 48 49 45 46 44 45 44 45 44 43 43 41 42 42 40 42 40 41 40 38 38 37 33 29 25
21 21 16 26 25 22 30 43 48 51 49 47 45 46 47 42 42 42 42 42 40 38 38 35 36 38 38 40 40 37 34 28 24
23 24 23 14 25 28 27 34 47 51 52 46 47 46 46 44 42 44 42 39 37 37 36 34 38 37 37 38 37 32 27 25 23
26 29 29 29 20 29 29 30 35 41 44 46 45 45 43 44 43 43 41 38 36 36 37 39 38 36 35 37 36 32 35 30 26
28 31 27 33 31 32 29 34 36 38 41 47 43 44 41 42 38 40 39 36 35 36 37 34 33 30 31 34 30 28 33 31 31
32 35 29 21 33 30 31 36 36 40 39 43 48 43 44 37 35 32 35 34 32 30 27 28 26 24 25 26 23 26 23 19 21
27 36 34 24 20 27 32 37 35 39 39 39 40 37 34 34 31 32 29 28 26 23 21 18 19 19 16 15 15 19 19 19 20
8 4 11 14 20 27 33 36 34 34 32 29 30 30 28 29 30 29 27 26 21 17 17 18 17 15 15 16 18 18 18 16 16
16 6 12 15 18 22 24 27 31 31 27 27 28 27 27 27 26 24 21 20 17 17 17 16 15 13 11 14 15 15 16 17 19
13 13 16 22 23 22 23 25 28 28 29 29 30 29 28 26 25 24 19 19 19 18 17 14 12 12 12 11 12 12 10 11 16
23 25 24 24 25 24 25 28 30 31 30 31 31 27 25 23 22 22 22 21 19 16 15 13 11 8 7 9 8 7 4 4 8
29 28 27 26 22 22 23 23 25 27 24 23 23 23 21 22 22 21 22 19 19 17 15 14 11 11 11 11 12 9 5 2 1
24 23 22 19 20 18 20 21 22 22 23 23 21 20 23 21 16 15 17 16 15 16 16 15 15 15 13 9 7 7 5 4 5

GFSFLT1_850_spd_015.txt.gz
Wind_Speed
40 49 44 52 54 57 57 55 50 49 49 45 42 39 34 32 37 32 30 30 19 27 25 21 18 19 15 15 14 14 14 11 10
46 44 42 45 55 57 58 57 54 50 49 47 43 40 35 33 37 40 33 35 29 24 23 21 19 19 19 17 15 16 16 13 13
36 22 39 40 52 57 59 59 56 51 49 48 44 40 37 35 38 40 39 35 37 30 28 28 23 25 23 22 20 18 19 17 15
39 43 50 48 57 59 58 58 56 54 51 48 46 43 40 37 37 40 38 39 38 39 31 32 32 29 27 27 25 22 23 20 18
44 40 57 48 55 53 55 57 56 57 54 51 48 44 42 39 36 39 40 39 43 37 41 36 30 32 32 30 29 26 27 24 23
27 24 33 46 50 50 53 56 56 57 56 53 49 45 43 41 39 39 42 42 41 43 41 41 40 38 37 38 35 32 30 27 25
23 19 21 30 51 55 58 57 55 55 57 53 49 47 45 44 43 41 42 41 41 43 42 41 42 42 41 40 39 37 34 30 28
24 23 21 21 44 51 53 56 55 55 55 54 49 47 47 46 44 43 42 43 42 41 44 45 41 41 42 42 40 38 36 33 30
29 15 21 18 41 55 56 55 55 56 55 53 50 46 46 44 44 44 44 45 43 41 40 41 44 41 40 41 39 38 38 37 32
24 31 18 28 29 42 49 52 52 56 56 55 53 49 46 44 43 43 44 44 43 41 39 36 35 34 35 36 36 33 35 36 31
10 10 17 31 31 30 41 50 52 51 56 57 54 52 48 44 44 42 41 41 42 38 36 35 33 32 33 33 34 36 34 30 28
22 22 29 19 21 31 36 37 46 54 55 58 56 55 51 49 45 45 45 43 40 37 36 34 33 32 28 30 33 32 30 27 28
17 25 39 34 41 32 40 40 41 49 55 58 59 57 54 52 47 48 48 44 39 38 34 29 26 28 28 28 26 24 22 21 25
4 14 18 31 36 28 29 43 43 45 49 54 59 54 52 49 44 47 44 40 39 35 27 24 27 26 25 22 18 18 16 13 17
10 9 5 28 35 34 27 39 46 47 47 46 44 40 41 38 38 37 37 37 28 27 26 25 22 17 17 15 12 14 15 15 18
12 9 5 11 30 35 31 38 44 43 39 38 38 38 34 35 35 35 33 29 27 24 22 20 17 16 14 13 15 15 15 16 17
9 18 19 19 25 29 32 39 35 36 36 34 36 37 36 35 33 29 26 23 22 21 19 17 16 15 14 14 15 15 14 13 14
16 17 28 34 35 30 27 27 32 32 33 37 37 35 34 31 30 29 28 23 20 17 16 15 14 15 14 12 13 10 9 8 8
16 15 9 36 37 39 36 34 35 35 33 29 27 25 27 30 31 28 23 22 22 19 15 16 16 14 14 10 7 9 8 6 5
13 24 41 42 34 32 32 32 31 26 22 22 26 30 29 27 27 25 25 22 20 19 21 18 14 14 14 10 10 10 10 8 6

GFSFLT1_850_spd_018.txt.gz
Wind_Speed
37 43 50 55 59 61 62 62 61 59 57 53 51 47 42 37 33 32 33 32 31 29 26 26 25 25 19 15 16 15 15 12 13
37 47 46 53 52 57 62 60 63 61 58 55 52 49 44 41 35 33 36 32 34 33 29 28 28 24 18 17 16 16 16 15 14
42 51 48 55 54 60 60 62 63 61 58 57 52 50 46 42 37 35 35 34 33 36 30 26 28 25 21 19 19 18 16 16 17
49 49 54 52 51 53 62 60 60 62 59 57 55 51 48 44 39 37 36 37 35 38 35 29 32 29 26 24 23 23 21 19 19
50 58 53 49 46 49 50 57 57 61 60 59 57 51 48 45 39 37 38 38 39 39 40 36 33 32 31 29 27 26 25 23 22
29 36 32 40 38 46 51 53 58 60 60 60 57 53 50 46 43 40 39 39 39 41 42 43 40 37 37 35 32 30 29 27 24
33 36 42 30 31 47 52 54 58 61 61 61 57 55 51 49 45 42 40 38 41 41 43 45 44 45 41 38 34 34 33 31 29
36 32 25 16 28 48 56 56 58 60 60 61 59 58 54 52 45 41 41 41 40 42 42 44 45 42 42 41 39 38 36 35 34
23 34 37 37 50 52 61 61 62 60 60 60 59 59 57 52 47 45 44 44 42 41 42 42 43 44 42 41 41 39 37 36 37
27 32 37 48 47 54 58 62 65 61 60 58 58 59 58 54 49 47 46 45 44 42 40 38 38 41 41 39 39 38 35 35 36
18 23 29 30 31 42 51 60 64 57 58 59 58 58 57 55 51 48 46 45 44 41 38 36 33 31 31 31 33 33 30 32 33
25 19 16 16 22 38 49 53 56 57 56 58 57 57 57 55 52 48 46 45 43 38 34 33 30 27 28 27 29 30 31 33 34
30 30 30 27 21 24 37 45 54 57 57 58 58 57 55 56 54 49 45 43 41 34 31 27 27 30 26 26 22 26 27 30 19
16 27 29 33 31 31 29 39 48 50 56 59 56 55 57 58 56 51 44 42 39 36 31 29 28 29 25 23 23 22 19 18 18
8 12 20 29 36 40 37 42 44 48 51 50 52 58 56 57 57 52 47 44 42 36 32 28 28 23 20 25 22 18 17 16 15
11 15 16 20 25 34 45 50 53 49 47 53 54 50 50 49 50 49 48 47 40 36 32 30 28 27 29 22 16 17 16 15 17
4 1 2 9 17 25 34 42 47 49 47 54 49 45 48 48 48 47 46 40 37 36 33 32 30 27 21 20 19 19 17 16 14
11 7 3 4 5 6 21 40 44 48 52 54 47 45 44 46 43 42 43 43 41 33 31 26 25 22 20 19 18 15 13 13 12
15 10 10 10 16 2 3 5 26 43 43 48 50 52 35 37 38 39 39 29 18 18 22 21 21 19 17 16 11 14 15 14 10
13 14 16 16 23 26 23 29 48 47 44 39 44 43 43 42 34 24 21 12 19 33 25 23 21 20 21 18 18 18 15 11 11

GFSFLT1_850_spd_021.txt.gz
Wind_Speed
43 44 47 53 56 60 61 60 59 58 56 54 53 51 48 43 40 38 32 31 31 29 32 28 25 24 23 19 16 16 14 12 14
36 44 49 53 59 58 60 57 62 62 61 58 56 53 50 47 43 41 36 30 30 30 34 31 27 25 24 22 19 18 17 14 15
35 42 45 52 52 59 62 61 63 62 62 61 59 56 53 50 45 43 39 31 30 32 35 35 31 28 26 25 21 19 19 16 17
35 40 46 53 56 57 56 55 56 61 61 62 62 60 56 53 48 45 43 36 32 35 36 37 33 30 28 27 24 22 22 19 18
37 45 50 55 58 51 48 51 53 58 59 60 61 60 58 54 48 47 46 41 36 37 38 38 37 31 30 29 28 25 24 23 22
24 33 36 36 36 38 46 49 49 54 57 59 59 56 58 57 52 49 48 44 39 38 41 40 40 38 33 34 32 29 27 26 26
19 26 32 39 43 35 41 47 50 53 54 55 57 56 56 56 55 47 48 46 41 41 41 43 42 41 40 35 33 31 29 29 29
17 26 34 41 43 47 45 41 48 52 51 51 54 56 56 56 55 48 46 49 45 42 42 43 43 43 41 40 36 34 33 32 32
22 23 40 49 53 56 39 39 49 48 51 52 52 53 55 55 55 51 49 50 48 45 44 43 44 44 44 43 40 40 38 37 36
30 27 36 42 49 57 49 51 52 53 54 55 52 51 53 55 56 53 52 51 50 48 47 44 43 43 42 42 41 39 37 36 35
22 23 24 38 41 47 52 51 47 45 48 57 56 53 52 53 55 54 53 53 52 50 49 47 43 41 41 38 37 36 34 31 33
33 32 30 24 32 43 49 48 45 47 49 55 55 55 53 54 55 56 54 54 53 53 51 47 44 39 35 33 33 28 25 28 33
29 30 28 26 18 21 35 46 48 49 50 52 56 57 55 54 55 56 56 53 52 52 51 47 42 34 31 29 25 17 19 19 25
16 20 24 21 23 23 21 30 45 48 49 51 53 54 56 55 54 55 55 54 52 50 49 42 36 33 30 25 20 20 20 22 23
4 4 4 11 23 21 24 30 34 42 47 41 47 54 56 54 54 54 53 53 51 47 42 38 38 36 29 26 27 28 27 24 22
4 2 2 3 3 4 11 25 30 40 42 46 50 52 54 55 51 50 50 52 52 46 40 41 43 38 33 34 31 24 21 18 17
11 6 6 9 11 12 11 9 15 27 38 44 51 54 54 54 55 52 49 50 51 51 44 45 42 38 38 38 27 25 19 17 20
13 9 7 6 8 13 17 18 18 16 26 36 44 49 51 53 52 49 46 43 40 41 42 40 38 36 33 33 35 29 23 23 25
16 12 11 12 12 12 16 19 22 25 27 26 30 41 46 45 47 49 46 43 41 35 33 38 28 18 12 19 19 20 23 23 20
14 16 15 14 13 14 20 24 27 29 26 31 28 33 34 41 47 46 40 39 33 30 20 8 2 6 19 20 22 24 25 22 20

GFSFLT1_850_spd_024.txt.gz
Wind_Speed
40 40 45 47 52 53 53 53 55 54 52 50 49 48 48 47 46 44 39 34 30 28 29 30 26 25 24 22 19 15 13 13 12
29 38 43 48 52 55 55 55 56 58 56 52 52 49 46 47 46 46 43 39 33 29 29 29 30 28 25 23 20 18 17 16 15
33 40 42 47 49 53 59 59 57 56 56 55 53 52 51 49 46 44 43 40 36 31 31 31 31 31 28 26 22 21 20 18 17
37 39 43 49 51 53 57 56 58 57 57 57 56 56 54 52 51 48 46 43 37 35 31 33 33 33 32 28 25 23 22 21 19
36 35 39 46 50 50 49 54 54 56 55 55 57 56 55 55 51 51 49 46 40 37 35 33 34 33 35 32 28 26 25 23 22
25 27 31 38 39 41 47 51 52 54 55 55 55 55 56 55 54 53 51 47 43 40 38 35 35 35 37 35 31 30 27 25 24
27 24 24 26 35 41 47 50 53 53 54 52 51 52 53 55 54 53 51 47 45 43 40 39 37 39 39 39 34 32 30 28 28
24 24 17 18 23 32 42 48 49 49 49 50 47 46 50 54 54 52 48 49 45 43 42 42 40 40 42 41 40 36 33 31 30
28 26 23 19 22 29 38 44 46 46 45 45 45 45 46 48 51 51 49 49 47 44 42 43 42 42 44 44 43 41 38 32 30
35 36 37 33 28 29 37 42 46 45 44 44 46 45 46 47 48 49 49 49 49 48 44 44 45 44 44 46 46 43 38 35 34
39 39 41 39 32 30 31 40 43 46 43 45 42 45 47 48 49 47 47 49 50 50 48 46 47 46 44 43 44 42 38 37 35
35 33 33 19 22 19 28 34 37 45 45 43 42 46 48 48 49 48 46 48 49 52 52 49 49 48 46 43 42 41 38 36 37
32 30 33 28 24 24 25 31 34 46 48 51 51 50 50 49 50 49 48 46 46 49 52 51 50 49 48 43 41 38 37 35 36
15 21 24 24 21 21 24 31 36 41 44 48 50 47 46 48 48 48 47 43 43 46 48 50 51 49 48 43 42 38 35 35 38
10 8 6 7 16 16 13 15 16 25 33 39 41 41 43 43 46 46 48 48 43 39 45 47 49 48 47 44 42 39 37 37 37
16 16 16 15 14 10 3 8 10 15 23 25 27 30 35 38 40 43 44 49 43 46 41 43 42 42 40 42 44 44 42 40 35
22 21 21 19 16 15 13 10 7 3 12 18 21 25 28 32 36 39 43 44 41 44 44 50 37 43 51 48 46 44 41 36 31
22 22 20 18 17 16 15 14 13 12 12 13 13 16 24 26 33 37 40 42 42 44 38 41 37 40 34 39 40 46 41 29 25
22 19 16 14 13 13 15 16 18 20 21 23 24 24 20 22 28 34 40 42 39 38 40 36 38 37 41 23 3 2 16 10 21
21 19 17 15 13 11 11 14 16 18 21 26 29 32 35 28 31 37 42 41 36 35 28 41 45 33 31 23 26 13 11 21 27

GFSFLT1_850_spd_027.txt.gz
Wind_Speed
26 32 36 39 42 45 48 48 49 51 49 48 47 46 46 44 43 41 38 35 31 27 26 24 24 25 23 21 18 16 14 13 12
25 31 35 39 45 47 50 50 51 50 51 49 47 46 46 46 46 46 45 40 34 31 28 26 25 26 24 23 20 19 17 16 14
26 28 30 34 38 43 50 50 51 51 49 48 47 46 46 46 46 45 45 43 39 35 31 28 28 28 28 26 24 22 21 20 18
29 28 30 32 37 41 47 45 45 51 53 51 50 47 46 46 47 47 46 47 41 36 34 32 31 31 30 31 28 25 25 24 21
19 22 27 29 30 31 33 44 44 49 51 53 54 52 50 49 46 47 47 46 43 38 37 36 34 33 34 33 33 30 29 28 26
18 20 21 26 22 29 37 42 46 48 49 50 49 53 54 53 51 51 51 48 45 42 39 38 36 35 36 36 36 36 33 30 29
16 17 17 17 23 29 33 39 44 47 47 47 46 48 51 53 54 54 53 50 48 46 43 41 39 38 36 37 37 38 37 34 33
17 17 16 20 23 24 27 34 40 42 45 45 46 47 47 47 47 49 51 51 50 49 47 44 41 40 40 38 39 40 40 38 36
29 24 23 23 22 20 21 23 32 39 43 46 46 46 45 44 44 45 47 47 47 46 48 47 45 45 43 42 42 44 44 41 39
30 29 31 29 27 27 24 25 28 35 40 46 47 47 45 46 45 45 44 45 46 45 47 47 48 47 47 46 45 46 45 42 43
35 42 40 38 35 34 35 33 31 33 37 42 46 46 46 46 47 45 45 46 47 46 47 49 50 49 49 48 47 47 46 44 43
43 45 43 40 37 31 28 25 27 31 36 39 41 41 43 46 45 47 47 48 48 48 48 50 52 51 50 50 50 49 46 43 44
35 36 35 30 27 22 15 18 21 27 34 39 39 40 42 43 42 43 44 48 48 48 50 51 52 53 51 50 49 50 45 41 42
20 24 24 24 25 24 23 22 20 22 28 34 33 36 37 40 41 42 41 40 40 43 45 47 50 55 53 51 50 48 45 42 41
13 13 15 20 24 22 19 18 16 16 21 25 28 31 32 33 36 36 35 37 36 34 42 37 37 42 52 55 53 49 47 42 42
14 13 12 12 16 18 15 13 11 12 13 16 17 18 19 21 24 28 32 35 35 38 39 30 29 39 41 38 47 51 47 42 39
18 20 21 21 21 20 18 13 9 6 3 4 7 12 15 17 20 23 26 31 31 36 36 38 46 52 45 44 42 44 45 46 42
20 23 23 22 22 20 18 15 11 8 5 3 3 5 9 14 19 23 27 30 33 39 43 45 44 52 45 49 36 40 46 37 33
20 22 21 21 19 16 13 9 6 3 1 3 6 9 11 14 18 21 26 33 37 41 42 43 39 41 44 46 38 42 39 33 31
14 18 18 18 16 13 10 8 7 6 6 8 10 12 14 14 14 17 26 35 38 42 44 38 42 46 47 40 40 37 39 42 23

GFSFLT1_850_spd_030.txt.gz
Wind_Speed
25 27 33 35 38 39 39 40 42 40 39 43 43 43 43 41 39 35 31 28 24 21 20 19 20 23 25 23 20 18 16 15 13
22 26 32 36 38 40 39 40 44 46 48 47 46 45 45 44 42 41 34 32 31 27 23 20 20 21 24 24 23 21 19 16 17
24 27 30 31 34 38 40 40 41 44 49 49 49 48 48 47 46 44 43 42 39 34 29 28 22 23 23 25 25 24 23 20 21
27 26 29 31 32 34 37 36 37 40 42 48 48 49 49 49 48 47 45 46 45 42 39 36 31 30 26 27 27 28 27 24 22
23 24 24 24 26 27 30 35 38 41 42 42 48 48 47 49 49 47 45 47 46 44 42 41 38 35 32 31 29 30 32 30 26
11 14 17 20 22 27 29 32 35 37 39 43 42 45 46 47 48 48 49 48 45 44 42 41 40 40 39 35 35 34 35 34 33
5 7 10 17 20 26 25 29 35 41 37 38 39 40 43 48 52 51 49 48 46 46 46 45 43 42 41 39 36 37 37 38 38
7 5 4 9 14 19 21 25 31 36 36 38 39 43 41 49 53 54 53 53 51 48 48 46 45 44 43 42 41 37 42 42 42
23 25 22 18 16 17 19 23 26 29 36 39 40 42 49 47 46 48 51 53 53 52 50 49 47 49 48 47 45 43 42 43 44
22 21 20 17 16 18 18 22 22 25 28 30 37 43 44 45 45 44 44 47 48 50 52 51 51 50 52 53 51 49 46 45 45
24 28 25 24 22 19 19 20 20 22 24 30 38 41 41 44 46 45 42 42 44 45 47 50 51 52 53 55 54 52 49 47 44
28 28 28 27 25 22 20 22 21 19 23 27 32 39 39 41 43 40 36 42 43 43 40 41 40 39 44 53 56 54 51 49 47
27 26 26 26 23 22 22 25 21 20 23 25 31 35 35 34 37 39 39 40 39 37 34 34 33 37 40 43 50 51 53 51 49
19 18 21 20 21 24 23 21 18 18 20 25 27 24 27 31 34 36 37 38 37 37 37 33 37 38 40 42 44 51 53 54 54
29 23 20 19 20 21 21 23 24 22 22 20 23 23 24 28 31 30 28 36 38 38 36 37 41 43 43 40 49 52 56 60 57
23 23 19 16 14 15 15 18 20 20 19 20 22 23 25 25 26 27 30 33 33 31 34 36 39 38 42 38 44 51 62 59 57
14 13 10 7 9 12 11 12 12 14 14 14 15 15 17 18 21 22 23 25 27 29 31 36 41 44 47 43 45 52 53 57 52
7 6 3 3 6 9 10 12 13 14 14 12 12 12 12 14 15 19 20 24 25 28 33 35 37 40 39 38 38 48 53 51 46
6 7 6 6 6 6 9 8 10 11 12 12 10 6 6 9 12 14 16 20 23 34 34 35 41 41 38 37 38 38 44 46 36
7 9 10 9 7 6 7 6 4 5 5 5 5 6 8 6 8 11 15 18 23 26 30 36 42 42 42 49 48 49 50 40 33

GFSFLT1_850_spd_033.txt.gz
Wind_Speed
29 29 31 36 37 38 39 40 41 40 40 41 40 43 41 39 40 30 30 28 23 23 20 20 19 24 22 22 18 19 18 14 12
30 31 30 34 37 40 40 40 44 46 44 44 44 44 45 44 42 41 33 31 29 24 24 20 22 22 21 23 23 21 20 17 18
32 29 31 33 37 40 41 43 45 47 49 49 45 48 47 46 45 43 42 36 35 30 27 25 21 26 24 23 25 25 24 19 18
28 27 30 31 36 38 41 39 40 45 47 47 47 48 50 48 48 46 44 45 42 38 33 32 30 26 27 26 27 27 27 25 21
32 30 28 29 33 32 36 39 40 42 45 45 50 49 51 51 49 48 48 48 47 45 43 40 38 34 34 29 27 29 30 29 25
22 24 25 30 31 32 33 38 41 41 43 44 43 44 46 51 53 53 53 51 47 47 45 44 42 40 40 38 33 33 34 33 33
14 9 9 21 26 30 31 32 37 41 41 40 40 41 43 46 51 56 55 52 51 46 45 44 44 43 42 42 40 38 38 39 38
10 10 9 11 17 21 20 26 30 37 38 38 39 42 44 48 49 49 49 49 51 48 48 47 44 44 45 45 44 41 44 42 43
7 8 9 9 11 18 23 29 29 31 37 38 37 41 46 44 45 45 47 47 49 49 47 48 48 49 48 48 46 43 43 43 43
12 13 13 13 14 15 20 23 25 28 32 36 38 42 41 44 44 45 46 46 47 53 54 51 52 51 50 50 51 50 47 45 44
15 15 14 15 15 16 17 18 20 23 23 31 37 40 44 45 48 46 44 45 47 48 48 51 52 52 52 52 54 52 51 50 48
23 22 21 19 19 20 18 15 17 18 22 26 32 39 45 48 44 44 44 50 49 48 46 47 50 50 51 54 56 55 53 52 53
16 20 20 18 19 18 19 21 22 22 24 26 34 34 41 42 42 43 47 47 46 45 44 45 41 44 48 52 54 56 57 55 55
19 18 17 15 13 13 18 18 20 24 26 28 37 29 32 38 41 44 45 43 41 41 41 38 40 42 44 46 50 54 58 59 59
23 21 20 19 17 16 15 17 19 22 27 26 28 29 29 33 36 35 34 40 39 38 36 36 40 40 42 45 49 52 57 61 63
22 19 18 16 19 17 14 12 17 21 25 22 23 26 29 29 30 33 32 31 33 31 34 34 35 38 41 46 46 47 51 56 58
18 14 12 10 12 12 10 8 10 14 14 18 21 22 25 24 25 27 25 27 25 28 28 32 36 35 39 39 36 38 38 42 46
13 10 8 6 4 5 5 3 4 5 5 9 14 16 16 17 17 20 21 23 23 25 27 28 28 31 32 32 35 37 36 37 39
12 8 6 4 3 4 4 4 3 2 7 7 10 11 11 12 13 13 14 16 17 25 27 25 31 32 32 30 30 35 32 36 40
8 4 5 4 5 6 6 5 3 4 5 4 9 7 12 8 11 10 11 12 13 15 19 23 24 34 35 40 45 46 39 32 38

GFSFLT1_850_spd_036.txt.gz
Wind_Speed
36 37 37 43 46 45 46 44 45 46 46 44 41 42 42 38 40 36 33 31 27 28 25 23 23 22 21 18 18 20 18 18 13
37 39 38 43 44 45 47 46 46 48 48 46 42 41 43 40 41 41 36 35 32 26 27 23 24 23 24 22 20 22 23 21 18
32 36 36 39 44 44 46 49 48 48 48 49 43 42 43 45 44 44 42 35 34 34 26 28 21 27 26 24 21 25 23 25 23
25 32 37 37 44 45 47 47 45 49 48 48 47 43 44 46 46 44 44 43 37 36 33 26 28 21 28 27 24 25 29 28 24
23 27 35 37 41 43 43 44 46 48 48 47 50 47 43 46 46 46 44 44 45 40 38 36 33 32 28 32 28 26 30 33 31
31 23 26 35 39 40 42 45 46 45 48 48 43 44 44 45 48 48 47 46 45 46 43 41 38 38 39 37 35 31 29 32 33
18 24 24 31 35 39 38 42 45 44 43 45 44 41 42 44 46 49 48 47 47 46 47 46 45 44 44 43 41 39 35 32 33
16 16 12 22 29 37 41 41 44 44 43 43 43 44 44 45 44 46 47 47 48 48 48 49 48 47 45 44 43 43 40 38 38
14 11 8 5 9 6 11 36 39 46 46 43 44 45 48 46 44 44 47 47 48 49 50 49 48 48 47 47 48 46 43 41 40
5 1 1 2 4 9 12 15 26 34 42 41 41 46 47 47 47 47 47 48 48 49 50 50 50 49 49 50 50 49 46 43 43
6 7 7 10 13 14 14 20 23 27 27 36 41 41 44 44 46 48 49 49 50 51 50 52 52 50 50 50 52 52 51 48 47
3 8 13 11 13 17 17 20 25 34 33 34 37 42 44 45 44 46 48 51 52 49 49 51 52 52 52 54 54 54 54 52 51
11 11 9 6 7 10 19 18 17 25 31 34 34 34 37 46 45 48 51 50 50 48 49 49 48 51 53 55 56 57 58 56 53
13 13 14 13 12 7 12 7 10 15 22 29 28 31 32 33 40 45 48 46 43 45 45 43 44 45 46 49 51 53 54 55 54
19 18 16 13 13 15 9 13 19 21 18 26 28 29 32 35 34 38 42 42 42 40 41 41 43 42 44 47 48 49 49 50 53
21 23 17 13 12 15 15 12 17 19 22 23 25 26 29 32 30 32 34 33 39 37 37 39 41 42 41 41 41 37 40 43 45
23 28 17 12 10 8 10 10 14 18 24 22 19 24 22 27 28 29 30 33 29 33 34 36 38 32 33 33 29 29 29 33 34
23 26 21 12 10 8 4 7 9 9 10 11 17 22 21 22 22 23 26 27 28 26 26 30 29 30 29 27 25 24 30 29 33
19 21 18 12 10 8 5 4 8 14 13 11 9 14 15 16 17 18 20 19 19 28 20 21 26 28 24 21 23 26 29 29 29
16 18 15 14 12 9 7 8 10 8 7 12 16 16 16 14 14 16 19 13 19 15 15 25 29 27 29 32 35 37 40 43 44

GFSFLT1_850_spd_039.txt.gz
Wind_Speed
46 51 47 51 56 55 54 52 51 49 49 48 45 42 41 42 40 35 33 31 29 29 28 26 21 21 18 17 17 18 19 16 13
46 45 50 54 58 57 58 55 54 52 51 49 46 44 41 41 43 40 37 34 32 28 27 25 22 19 20 17 15 17 21 21 18
44 48 51 53 58 57 58 56 54 52 51 49 46 44 42 41 43 44 42 36 35 31 27 29 24 23 23 22 20 20 20 24 24
34 45 50 52 56 57 58 55 54 54 52 50 48 44 41 43 43 44 44 41 35 37 32 28 31 26 24 28 26 24 22 25 26
29 45 45 53 57 57 55 55 54 53 52 51 49 45 42 42 42 43 44 44 39 37 36 35 31 34 33 25 28 27 22 21 26
30 39 44 52 53 54 52 55 55 52 52 51 47 45 43 40 41 44 43 44 43 41 39 38 38 33 32 33 28 29 28 24 25
36 25 41 48 50 51 53 53 53 52 50 49 47 45 43 43 41 42 43 42 41 42 43 42 41 40 38 35 36 34 32 31 29
24 26 43 45 49 48 49 50 51 49 49 47 46 44 43 44 43 40 40 42 43 41 43 45 43 43 43 43 43 42 41 40 38
27 25 22 28 40 48 52 53 52 49 50 48 46 46 43 40 40 40 41 42 42 44 44 44 45 47 47 47 48 48 47 44 43
21 22 20 22 19 22 35 41 51 50 49 48 48 47 45 44 41 41 40 38 41 44 44 44 45 46 47 49 50 49 49 47 46
17 18 14 12 11 8 7 8 32 45 49 50 47 48 49 49 47 45 41 40 41 42 43 45 45 46 46 46 47 47 48 48 47
26 20 14 10 7 5 0 6 20 26 42 49 49 47 48 48 49 47 46 46 45 44 43 44 46 47 47 48 49 47 45 44 46
23 19 13 5 1 3 3 8 21 25 34 36 44 48 48 45 44 47 48 48 47 46 46 45 44 45 47 49 50 50 48 46 46
23 20 17 9 1 5 3 3 6 14 30 38 36 37 42 43 42 43 44 44 45 47 48 47 46 46 46 47 47 46 46 45 45
21 23 21 17 10 10 9 6 7 6 8 23 34 33 32 31 33 36 42 44 42 43 44 45 46 45 46 46 45 43 42 41 43
22 21 22 22 16 10 9 10 13 15 13 12 15 22 27 34 33 32 33 34 38 41 40 40 42 43 43 43 41 40 38 37 36
22 20 22 20 18 16 15 4 10 15 19 20 19 17 23 26 24 28 28 28 31 33 38 40 38 38 40 39 36 32 31 31 28
23 23 21 17 16 16 17 14 8 12 19 22 22 24 22 24 23 25 25 24 24 31 29 31 31 34 34 33 30 28 26 26 28
25 25 24 19 14 16 15 18 19 17 15 13 15 16 18 24 24 24 21 20 20 26 19 23 22 22 22 29 27 30 30 29 26
24 24 26 23 17 16 15 15 17 19 17 14 15 15 17 18 20 18 17 19 19 19 27 26 19 24 31 31 30 30 30 32 34

GFSFLT1_850_spd_042.txt.gz
Wind_Speed
50 44 52 50 54 56 53 60 57 57 56 53 50 46 42 38 38 35 34 33 31 30 27 24 21 21 19 16 18 18 18 17 14
41 46 51 52 51 57 56 61 63 60 58 55 52 48 43 40 38 38 37 35 34 32 31 26 23 23 22 20 18 20 18 20 17
47 49 52 52 52 57 59 65 62 58 59 56 51 49 45 42 39 39 39 36 34 33 31 29 26 24 23 20 19 19 19 18 19
50 51 54 56 56 60 65 62 62 58 59 55 52 48 45 43 42 41 43 41 37 33 32 31 30 27 23 24 22 22 23 21 19
46 58 59 56 57 58 56 54 57 60 57 55 51 43 42 43 42 40 42 44 41 37 35 34 31 31 30 22 24 26 27 26 24
44 52 55 53 51 51 55 54 57 59 56 52 47 45 44 43 41 40 40 42 43 41 38 37 36 31 34 35 34 27 29 30 27
39 43 50 52 50 52 56 57 57 57 55 52 46 45 43 42 40 39 37 37 41 42 40 39 40 39 38 36 37 36 31 29 29
34 39 47 51 52 50 54 54 54 54 53 51 47 44 42 41 38 37 36 35 37 39 40 40 41 41 41 42 39 37 35 35 33
28 36 48 52 52 53 56 56 55 55 53 50 48 46 42 37 38 39 38 36 34 35 38 39 40 44 44 45 45 45 43 40 38
22 30 39 46 51 57 59 58 55 54 51 48 47 45 43 41 38 39 38 37 37 37 36 36 40 41 43 46 47 46 46 45 45
37 33 25 33 35 38 40 42 44 46 43 45 44 44 41 39 39 37 35 37 36 36 36 37 38 39 42 43 45 45 45 45 46
25 28 31 31 27 28 31 35 37 37 39 40 42 44 43 40 39 38 36 37 36 32 33 35 36 36 38 41 42 40 40 39 41
29 29 25 23 24 25 22 19 25 30 33 44 45 45 45 43 41 41 41 37 36 34 35 36 35 37 37 37 38 36 36 35 36
30 30 30 24 19 20 17 14 11 18 29 36 34 42 44 43 43 43 41 39 39 39 39 40 40 40 40 40 39 38 36 34 35
30 28 25 25 19 15 13 11 10 9 5 23 36 37 40 40 38 38 40 40 40 40 40 42 42 42 42 42 41 39 37 34 33
31 28 25 23 22 21 15 9 6 3 3 3 5 18 32 35 37 37 36 36 36 36 37 39 41 41 42 41 40 38 34 32 30
26 28 27 20 17 17 14 11 7 3 1 4 6 9 13 17 23 26 32 34 34 34 34 34 36 38 38 37 36 34 28 27 27
26 23 26 19 14 13 13 7 4 4 6 9 11 15 15 20 24 26 26 29 32 32 31 30 30 29 29 30 29 27 28 27 26
19 21 19 19 10 6 7 9 12 11 12 13 14 13 15 17 22 24 22 26 30 30 28 27 26 23 22 23 23 24 24 23 22
16 16 14 15 14 6 4 4 8 12 15 13 13 15 17 15 16 19 22 24 25 26 28 28 26 25 24 25 23 23 19 18 19

GFSFLT1_850_spd_045.txt.gz
Wind_Speed
41 41 45 46 43 52 54 56 57 56 57 56 54 52 51 47 41 35 31 31 32 31 30 26 20 19 18 16 16 15 15 15 14
34 35 40 41 45 49 52 56 58 58 59 57 56 54 52 50 45 39 34 33 31 32 29 26 23 20 20 18 17 17 17 17 17
36 41 43 46 42 46 53 56 55 57 57 55 55 57 54 52 47 41 35 35 35 33 31 29 26 24 22 21 19 19 19 19 18
38 42 48 54 50 50 54 52 55 57 58 56 57 55 54 52 49 43 38 36 36 34 33 32 29 28 25 23 21 20 21 20 19
40 45 50 51 54 52 54 49 50 57 57 58 57 54 52 52 48 45 42 37 35 34 34 33 33 29 27 25 24 24 24 24 24
36 43 49 48 48 47 53 54 50 53 56 59 59 56 53 52 51 48 44 39 35 34 35 35 33 32 31 30 29 26 27 27 28
32 46 50 50 45 48 55 55 54 55 56 57 56 54 53 52 50 49 43 37 35 34 34 36 36 36 36 33 32 32 30 27 27
28 45 49 47 47 48 53 51 51 51 55 55 51 52 51 49 46 44 40 37 35 34 34 35 38 38 39 39 37 34 35 35 34
23 34 43 47 51 51 51 53 57 56 54 51 48 49 47 44 44 41 39 36 36 34 33 34 36 40 42 41 43 41 39 36 35
21 36 44 46 48 50 52 56 58 58 52 47 48 48 46 46 44 43 39 35 36 36 35 33 36 37 40 43 43 42 41 40 40
7 18 34 45 49 50 53 54 55 51 48 46 45 45 45 44 44 42 39 38 38 36 36 35 34 35 38 40 41 41 42 41 42
22 12 23 32 38 40 40 45 49 48 45 42 42 42 41 42 41 39 38 37 35 33 34 34 34 34 35 37 37 37 36 37 40
27 26 21 22 25 28 30 34 40 42 41 38 38 37 37 36 35 34 35 33 30 28 30 29 28 29 29 29 30 29 28 30 33
29 29 29 28 24 26 27 29 33 34 32 32 31 34 38 35 33 33 33 32 32 30 30 30 31 31 31 31 31 29 27 26 28
30 32 31 30 30 29 23 21 31 30 29 30 29 31 32 33 36 36 37 35 34 34 33 33 34 34 35 35 34 33 30 27 28
30 29 28 26 28 27 25 23 21 22 19 18 17 24 26 27 26 30 34 35 33 33 33 34 33 34 35 35 34 32 30 27 25
25 26 26 23 22 23 21 16 14 15 12 10 9 8 9 15 21 24 26 28 29 31 30 30 31 32 31 30 29 29 26 24 21
21 21 23 20 19 16 15 13 8 4 4 6 7 8 7 8 11 13 18 21 24 26 28 30 29 28 25 23 23 20 19 20 21
19 19 18 18 15 13 11 9 8 6 5 8 10 13 15 14 14 15 18 19 22 25 27 28 27 25 23 21 19 17 17 18 18
17 17 18 18 16 10 8 6 7 10 12 10 9 11 15 19 18 17 17 19 21 23 25 27 26 24 22 20 18 17 17 16 16

GFSFLT1_850_spd_051.txt.gz
Wind_Speed
26 32 34 37 38 39 44 46 48 48 47 47 45 44 43 40 38 36 34 32 29 25 26 28 25 22 20 17 14 12 12 11 11
23 29 35 38 39 41 42 47 50 50 48 48 48 47 45 43 41 38 36 35 31 28 24 22 25 23 20 20 17 15 12 13 12
23 27 31 34 37 42 47 46 48 49 47 46 47 48 47 45 44 41 35 33 33 31 25 20 20 21 21 20 20 18 16 15 14
28 28 32 34 38 43 48 46 48 50 49 46 46 45 45 46 45 43 39 36 32 31 29 24 22 22 24 23 22 21 20 18 17
28 32 32 34 36 35 36 45 47 52 52 50 47 45 44 44 44 43 42 39 35 32 31 28 25 25 26 25 26 24 23 21 21
16 22 23 25 27 35 38 42 48 47 51 52 51 49 47 45 45 44 43 40 38 34 32 32 29 29 29 29 29 27 26 24 23
11 15 22 25 27 34 40 42 47 49 49 45 47 49 50 49 48 44 42 40 38 35 34 33 33 31 31 31 31 30 29 28 27
8 9 12 20 28 36 41 43 44 46 47 48 45 46 46 46 43 42 41 40 37 33 32 33 34 33 33 32 33 32 32 31 30
14 14 14 15 23 30 38 42 47 48 48 49 47 46 44 41 40 40 41 40 39 36 33 33 34 36 35 34 35 34 33 32 33
13 17 19 18 22 30 39 42 44 49 48 49 50 46 42 40 39 40 39 38 39 38 36 34 35 36 37 37 36 36 35 34 35
15 19 22 23 24 27 35 39 39 42 42 49 50 46 41 39 39 38 37 38 38 37 36 36 36 36 37 38 38 37 36 36 37
15 18 22 24 23 27 30 37 41 44 43 46 46 43 41 38 36 34 34 35 35 34 35 36 36 36 37 38 37 36 35 36 39
16 15 17 17 14 20 28 36 40 43 41 43 42 40 41 39 37 35 34 31 30 30 31 32 32 34 35 36 35 33 32 32 36
16 15 14 6 12 23 30 35 37 35 37 38 36 37 40 37 34 32 31 31 31 33 33 33 34 34 35 35 34 33 32 32 34
29 28 21 13 11 21 25 26 27 31 33 33 32 33 33 31 31 30 31 33 33 32 32 33 33 33 33 33 31 28 27 28 31
35 33 30 24 16 17 20 23 24 25 25 27 26 27 27 27 27 27 29 29 30 29 30 30 30 30 30 28 26 25 25 25 27
38 36 34 27 28 27 22 13 11 12 15 18 22 25 26 25 25 27 28 28 28 29 29 30 29 28 27 25 25 25 23 23 25
33 36 37 34 31 29 28 24 21 17 11 10 18 20 22 24 25 25 25 25 25 28 28 27 27 27 24 24 24 21 16 17 20
25 29 29 33 32 27 23 21 19 17 14 12 11 10 14 16 17 21 18 21 27 26 25 24 24 24 24 22 20 19 18 20 20
18 20 23 26 27 24 21 19 16 14 13 10 5 3 2 5 13 11 32 38 27 26 25 26 24 23 24 22 19 18 19 20 19

GFSFLT1_850_spd_054.txt.gz
Wind_Speed
26 28 32 35 38 39 39 40 40 40 39 42 43 43 41 40 37 30 28 24 19 18 17 15 15 15 15 13 12 11 10 8 7
23 26 31 36 37 40 40 41 45 45 43 45 44 42 42 41 39 37 28 27 24 22 19 16 16 17 17 16 16 16 13 10 10
21 26 28 31 36 39 40 40 41 41 41 44 47 43 42 40 41 40 38 31 31 25 21 21 19 17 18 18 17 18 17 13 12
30 24 27 30 35 38 40 38 39 42 40 40 43 47 45 42 39 41 41 37 36 32 28 26 22 20 19 19 18 19 21 18 15
30 30 27 28 30 31 35 39 39 41 42 41 40 44 49 50 47 44 37 41 39 35 31 28 27 24 22 22 21 19 23 23 18
24 23 25 27 26 30 34 38 40 41 41 42 39 39 40 43 44 43 41 42 40 37 33 31 28 29 27 25 22 21 23 24 23
13 13 20 22 24 28 31 35 40 43 41 39 39 38 38 41 47 46 43 44 42 39 36 33 31 31 30 28 26 24 23 24 25
6 7 12 20 26 28 33 33 38 41 39 39 40 44 40 43 48 47 46 45 43 40 38 35 34 33 32 32 28 26 27 26 24
8 8 8 9 14 22 25 32 36 38 43 44 44 47 50 45 47 48 47 45 43 41 39 37 35 36 35 35 30 28 31 29 25
7 8 11 12 14 18 23 28 31 36 44 43 45 49 48 48 49 49 48 46 43 42 40 38 38 38 37 37 36 33 33 32 32
10 10 12 15 16 19 22 26 29 31 32 41 45 45 48 47 46 46 45 44 44 43 41 40 39 38 39 38 38 36 35 33 33
12 15 17 19 20 22 23 24 29 33 36 36 41 45 48 49 46 46 45 46 45 43 41 40 40 39 39 40 39 38 36 34 35
14 15 17 21 21 22 25 28 28 34 37 38 45 47 48 45 42 44 45 43 43 41 40 40 37 37 39 39 39 38 37 35 36
13 12 17 18 17 21 23 23 29 38 39 43 42 35 34 37 41 41 39 37 36 37 37 35 37 35 36 37 38 37 36 36 37
14 14 16 8 6 9 13 19 29 35 38 32 32 32 33 36 38 35 31 35 33 31 32 34 34 35 34 32 36 36 36 36 36
25 22 19 11 5 6 10 16 22 25 27 27 27 30 31 30 30 32 30 33 33 30 30 28 29 27 26 26 25 31 34 34 35
29 28 24 24 18 17 16 12 13 16 18 21 23 24 24 23 24 24 25 22 23 25 26 27 27 26 26 25 25 25 23 30 32
24 27 30 27 26 25 22 20 18 14 14 16 19 19 19 19 19 21 20 21 19 21 20 23 23 24 23 23 24 23 23 22 23
19 23 27 29 27 27 22 21 20 19 18 19 15 15 17 17 18 17 18 20 20 22 23 23 26 23 23 20 22 24 26 26 25
14 17 23 23 22 23 22 22 22 22 20 18 15 14 13 16 19 17 19 18 15 12 7 17 25 31 30 27 20 27 25 21 22

GFSFLT1_850_spd_057.txt.gz
Wind_Speed
35 33 34 36 39 40 42 41 42 42 41 41 41 41 40 40 38 27 26 24 19 19 16 15 14 14 14 12 11 9 9 7 6
36 37 34 35 37 39 41 42 45 47 44 45 45 41 42 43 41 37 28 27 26 20 20 16 17 14 13 15 13 12 12 9 9
22 27 34 33 35 37 39 41 42 43 44 45 44 43 44 44 43 41 36 31 28 25 21 23 14 18 17 16 17 16 16 12 13
24 27 25 28 33 36 38 37 38 41 43 43 42 43 44 43 41 39 41 36 36 31 27 22 25 20 18 18 18 18 19 17 13
36 31 27 30 30 33 36 38 38 40 41 41 43 43 45 46 43 39 38 44 38 33 33 29 27 24 22 19 19 19 20 19 17
30 35 32 29 30 30 34 37 38 39 40 41 39 40 43 43 43 44 42 40 43 39 36 33 28 27 26 23 21 23 22 21 20
30 30 31 33 30 29 31 35 40 40 40 39 38 37 40 44 46 46 43 42 41 42 40 37 34 31 29 27 24 24 24 23 23
17 16 19 31 28 30 31 32 37 41 38 40 40 42 42 47 49 47 44 44 43 44 41 40 37 34 32 30 26 24 26 26 25
5 8 8 11 19 22 25 29 33 37 43 41 42 43 48 44 43 45 47 46 47 44 43 42 40 38 36 34 29 27 28 27 26
4 11 10 9 10 15 22 28 28 33 41 42 40 44 42 43 43 46 48 47 46 47 45 43 43 40 39 38 37 32 31 30 31
9 10 13 13 13 14 17 21 25 29 31 41 43 44 42 44 43 45 46 46 48 47 45 44 44 43 42 41 40 37 35 34 33
9 11 14 15 15 16 18 19 23 23 31 35 43 43 47 46 48 44 45 48 49 48 46 46 45 44 43 43 42 38 36 35 35
11 12 14 17 19 20 21 24 24 27 31 36 42 47 50 48 46 45 46 47 47 49 48 47 43 44 44 43 42 40 39 36 35
13 13 14 18 19 23 23 23 25 31 34 39 46 41 40 42 45 45 43 41 41 43 47 37 44 38 41 43 41 41 39 38 38
17 16 15 10 15 17 19 22 27 33 37 41 37 36 39 40 41 40 37 39 39 38 37 39 35 37 33 32 39 38 39 38 38
15 16 15 12 9 6 6 10 17 27 33 32 34 36 38 37 37 38 35 37 37 33 34 31 33 29 30 29 27 28 33 36 37
20 20 22 20 14 12 12 2 8 14 22 26 29 33 34 35 36 37 37 32 30 29 29 29 27 29 27 26 26 27 25 28 32
16 21 24 25 22 22 19 13 9 10 15 24 27 30 32 34 33 35 37 30 28 29 26 27 27 26 24 24 25 26 27 25 26
15 19 24 24 27 21 19 16 17 10 14 17 25 28 31 31 31 32 31 31 33 31 31 30 28 26 26 19 24 24 26 29 30
9 18 17 22 23 23 18 17 16 15 18 14 15 23 27 28 30 30 32 32 28 29 32 26 29 27 26 27 24 28 26 28 29

GFSFLT1_850_spd_060.txt.gz
Wind_Speed
27 45 39 41 46 46 48 46 46 45 45 42 41 42 40 39 35 32 29 19 24 17 16 21 17 18 12 10 10 9 9 7 10
26 16 9 39 43 46 46 47 48 48 48 45 42 44 43 43 41 36 34 28 23 24 22 14 17 17 13 13 13 10 10 7 7
21 24 37 41 41 44 45 48 46 46 45 47 45 41 45 44 44 42 37 33 28 25 25 21 15 18 17 15 16 15 14 9 9
31 23 29 35 24 40 44 44 45 46 46 43 46 44 43 46 45 44 41 37 35 30 28 26 28 18 19 19 17 19 18 15 16
36 41 42 33 36 38 43 44 45 46 46 46 46 46 43 44 45 44 44 44 40 37 34 30 29 30 21 21 21 20 22 20 21
26 44 50 44 44 47 49 46 45 45 47 47 43 43 43 43 44 44 43 45 46 41 40 37 35 32 30 30 25 21 22 21 19
18 34 46 40 44 37 49 50 47 45 44 44 44 42 44 45 46 47 46 44 42 44 41 42 40 37 33 30 28 24 23 23 23
15 19 15 26 25 23 43 46 47 46 42 43 43 44 45 46 47 46 43 44 44 41 48 44 41 38 36 34 31 29 27 25 26
42 11 3 8 7 27 30 26 44 45 45 43 44 44 46 42 43 43 44 44 43 43 43 45 44 41 38 37 36 32 26 25 26
30 35 9 10 11 11 14 27 16 42 44 43 42 45 43 43 43 45 46 45 44 43 44 44 44 42 40 40 39 36 29 28 27
25 35 22 14 14 17 9 5 38 33 38 41 41 43 42 43 45 46 47 47 46 45 43 45 44 44 42 41 41 39 35 32 31
15 17 34 22 15 16 19 18 13 6 33 39 44 41 45 44 46 46 47 48 48 47 45 44 45 44 42 43 43 41 37 34 36
18 19 24 29 23 18 17 20 24 21 15 32 42 38 45 45 43 47 48 49 47 46 46 48 46 45 43 43 43 41 40 37 35
14 16 21 26 22 23 19 20 23 26 30 25 35 40 37 39 43 45 45 44 44 44 45 44 44 42 42 43 43 42 40 38 38
16 19 22 20 20 16 17 18 22 27 31 37 29 32 40 41 42 43 44 43 43 43 42 43 39 41 39 40 43 42 40 38 37
14 16 17 17 11 9 9 14 11 16 32 30 36 27 37 40 40 43 41 43 43 43 42 42 42 38 39 36 35 39 37 36 37
13 17 18 18 12 6 10 13 9 9 16 29 32 39 36 40 41 42 43 40 43 44 43 44 39 39 34 33 33 30 32 28 25
8 13 16 17 16 9 8 9 7 7 13 18 29 34 37 38 39 41 42 43 39 43 42 42 43 37 35 30 28 29 31 29 28
6 9 15 20 19 15 11 14 8 3 8 12 17 23 30 33 34 36 40 42 38 39 37 37 36 33 27 31 31 29 28 29 32
3 6 10 15 18 16 13 13 14 5 3 13 18 18 24 28 33 33 37 38 38 40 39 35 36 32 34 29 29 32 29 25 29

GFSFLT1_850_spd_063.txt.gz
Wind_Speed
24 23 19 40 48 48 47 47 49 49 47 42 42 42 41 37 37 35 30 20 20 18 14 16 13 9 10 9 9 10 8 10 12
28 27 29 21 48 51 51 48 50 51 49 46 42 43 42 42 37 38 36 30 25 21 18 15 19 16 13 12 9 12 10 8 11
21 21 28 13 11 38 49 53 49 50 50 47 43 43 44 46 43 39 39 35 30 29 26 24 15 23 21 16 11 14 12 10 12
44 41 44 22 31 27 38 42 45 50 52 49 47 43 43 46 48 44 39 40 36 31 32 29 22 18 23 18 14 14 14 13 13
49 53 47 55 56 49 40 36 44 51 53 53 51 47 44 44 47 48 45 42 41 38 34 31 28 24 21 21 18 16 19 17 16
36 50 46 51 48 45 43 35 38 48 53 56 53 50 47 46 45 48 50 47 44 43 38 36 32 24 27 25 24 20 19 19 18
4 19 38 50 44 31 33 50 38 47 49 52 51 51 50 48 47 46 47 48 47 45 43 40 39 37 34 33 33 29 23 21 20
28 21 16 30 45 42 28 49 44 39 50 51 50 48 50 50 46 44 43 44 46 46 47 44 41 41 41 38 34 31 28 26 24
25 28 37 25 28 41 34 41 46 33 47 51 52 49 50 47 45 43 43 43 43 42 44 48 45 44 43 42 40 35 31 28 28
25 22 16 25 34 11 29 22 19 36 33 43 51 53 52 50 46 44 42 43 42 42 41 42 48 45 44 44 43 40 34 30 29
31 30 26 24 29 20 16 10 26 35 41 32 33 44 51 51 48 45 43 41 44 42 41 41 43 47 46 45 44 41 37 33 30
27 29 26 26 26 25 29 20 19 25 25 35 33 30 51 52 50 47 46 44 42 42 41 42 41 42 44 44 42 40 38 35 34
32 24 28 28 28 25 27 19 12 12 27 41 39 37 47 51 49 49 48 46 44 42 42 42 41 42 42 42 42 40 38 37 37
26 26 27 28 25 26 23 13 9 11 23 30 29 26 44 49 49 50 49 47 46 45 44 42 44 43 43 43 40 38 37 36 38
26 22 26 25 25 25 24 21 21 14 12 25 22 23 27 44 45 47 49 48 48 47 45 45 44 45 45 44 42 39 36 36 37
23 21 21 23 25 22 21 22 25 27 23 23 23 22 26 27 46 45 45 47 49 48 46 46 45 45 45 45 43 41 38 35 35
18 21 17 16 18 17 20 20 21 24 27 26 26 26 27 30 36 47 44 47 47 48 48 48 46 45 44 43 42 40 40 38 36
13 19 16 14 14 15 15 18 17 17 23 24 23 26 29 31 34 43 48 48 47 48 50 49 48 46 43 41 41 42 39 38 36
14 11 10 15 15 18 15 19 18 17 15 20 18 19 25 31 33 40 49 48 48 45 46 46 45 41 42 42 41 37 34 33 34
11 9 6 9 15 16 16 18 18 15 12 15 14 16 17 23 29 38 44 46 48 48 40 41 42 40 36 37 34 33 35 28 27

GFSFLT1_850_spd_066.txt.gz
Wind_Speed
38 26 37 44 51 52 53 50 49 46 43 39 35 35 35 38 36 32 27 25 26 23 20 17 13 13 14 12 12 13 14 13 14
37 37 38 50 54 52 57 54 53 50 46 42 39 35 37 37 39 37 35 27 24 26 22 18 19 16 15 14 9 10 11 13 13
33 42 36 47 53 52 57 56 53 50 48 45 42 39 36 39 40 40 39 34 27 28 23 20 17 19 18 18 14 12 12 14 14
29 30 36 49 54 53 48 52 53 51 50 48 44 43 40 39 42 42 43 40 36 29 28 24 23 20 19 23 20 15 15 15 15
36 38 38 41 46 52 58 51 50 51 51 50 46 43 43 41 41 44 44 45 43 36 32 30 29 27 22 23 24 19 16 16 17
26 30 32 35 36 37 50 51 52 51 49 51 48 46 46 44 42 44 47 46 46 43 38 34 33 33 30 24 25 23 18 16 17
7 21 26 21 20 23 9 18 44 43 44 47 47 48 48 48 44 43 44 47 47 46 45 42 38 35 35 31 29 27 23 19 17
30 24 2 7 14 22 18 16 17 33 43 42 46 47 50 50 47 43 42 42 47 49 49 47 45 43 39 35 33 31 30 27 24
28 22 20 15 9 11 19 27 25 21 33 29 43 46 49 48 47 46 44 43 43 45 50 51 50 49 45 42 40 36 33 30 28
24 21 18 20 18 17 16 14 13 21 24 29 38 45 46 46 44 44 43 43 43 44 45 47 52 53 51 48 46 45 41 37 33
25 21 21 23 20 22 23 20 14 12 18 23 27 38 43 43 44 45 42 41 42 42 43 43 47 49 53 52 50 47 45 42 39
24 23 22 21 23 18 21 18 16 16 18 23 28 30 37 37 39 44 45 45 43 41 41 41 42 45 46 49 50 48 46 44 43
20 22 22 21 18 17 18 23 17 11 11 14 23 34 28 24 27 44 49 50 47 43 42 41 38 41 44 45 45 45 43 41 42
19 19 18 21 17 14 14 17 15 10 11 13 21 30 29 32 35 40 49 52 52 49 45 44 42 40 39 41 43 43 42 41 41
23 21 19 18 19 17 15 17 21 21 12 11 16 22 29 30 34 35 44 47 50 53 50 49 46 44 42 41 41 39 38 38 38
18 24 21 22 19 18 15 15 20 24 22 18 15 21 27 24 27 30 44 44 47 53 52 52 51 48 46 44 43 41 39 38 37
16 18 21 21 22 18 17 14 17 21 27 24 23 20 23 30 29 33 35 44 46 50 53 55 53 52 50 46 45 44 41 40 38
18 18 19 20 16 17 18 17 15 15 17 24 22 26 26 31 34 35 39 37 45 49 52 53 51 52 51 47 46 46 41 39 39
21 21 19 17 16 14 14 14 18 16 16 18 26 27 25 26 28 34 34 36 43 46 50 53 50 47 47 44 41 38 38 36 36
24 20 19 15 10 16 19 18 16 19 19 19 20 28 30 25 23 23 30 33 41 45 48 49 47 47 44 43 42 37 34 34 32

GFSFLT1_850_spd_069.txt.gz
Wind_Speed
38 37 39 41 44 50 53 56 54 48 44 40 36 32 28 31 32 33 30 26 23 23 21 17 13 13 15 12 11 13 13 13 16
32 36 39 39 41 49 54 54 55 50 47 44 39 36 29 30 32 36 33 29 23 23 21 18 17 16 16 15 12 12 14 14 15
22 28 32 32 39 49 53 54 54 52 48 47 42 39 35 27 31 35 35 31 28 24 23 22 19 19 17 15 15 14 14 14 13
24 34 37 37 39 47 53 53 55 55 53 51 48 45 39 33 30 34 36 36 34 30 22 23 21 20 19 19 18 17 16 15 15
15 36 36 41 34 41 37 41 48 55 55 53 50 47 43 38 32 29 34 38 38 36 31 25 25 23 23 21 18 22 21 18 17
22 6 9 13 13 24 26 25 32 42 47 52 51 47 47 43 39 36 32 36 39 40 37 33 29 28 28 25 22 21 24 21 18
29 19 10 11 10 8 9 17 21 27 37 45 48 49 48 46 43 39 35 31 37 41 42 41 37 33 31 29 27 26 23 22 21
29 30 22 16 9 6 2 7 9 16 27 29 37 45 49 48 45 41 36 35 32 37 42 43 43 40 38 34 31 30 30 28 26
25 28 25 21 15 10 7 2 10 15 12 25 30 36 43 43 44 46 42 38 37 35 36 41 45 46 45 43 40 36 32 32 32
24 25 24 23 18 16 14 10 2 13 19 14 24 29 32 37 40 43 40 37 39 39 39 38 40 46 48 48 47 45 40 38 36
24 25 24 23 19 15 15 18 13 4 11 21 22 21 33 36 37 41 39 37 38 36 38 40 40 41 43 48 51 50 47 44 42
18 20 22 22 23 18 18 16 20 14 3 10 15 18 19 34 35 39 38 36 35 34 35 35 38 38 40 43 47 49 50 48 47
21 17 18 23 21 21 16 15 14 17 12 6 7 12 14 21 27 31 32 30 30 33 36 37 36 36 35 37 42 44 46 45 48
20 18 17 20 20 20 20 16 13 13 15 12 11 10 9 16 21 19 20 20 25 32 36 41 39 40 38 34 33 37 41 43 43
22 21 18 16 22 21 20 17 17 12 15 15 16 15 10 11 16 23 19 22 26 32 38 41 44 42 42 40 36 34 34 36 41
23 21 21 19 21 22 17 18 15 20 16 19 18 21 17 10 16 20 20 22 29 32 37 40 44 44 45 45 39 38 36 35 36
27 23 21 20 22 22 23 18 17 15 21 26 24 25 28 22 16 16 20 20 25 29 36 40 41 44 46 45 43 40 40 38 36
31 26 22 22 24 22 22 21 17 18 20 26 31 32 32 32 30 27 19 22 24 31 33 34 38 43 44 42 42 40 38 36 37
30 27 22 24 26 23 21 20 21 19 22 25 29 37 35 29 29 31 26 23 26 30 31 34 36 36 41 45 41 37 35 33 34
28 29 28 25 24 26 23 21 20 22 24 24 28 31 30 29 26 28 30 26 23 25 29 33 37 39 37 42 41 40 36 34 31

GFSFLT1_850_spd_072.txt.gz
Wind_Speed
27 32 35 38 36 41 43 42 40 42 45 41 38 36 28 24 29 27 28 26 21 18 17 14 11 10 12 12 11 11 12 12 12
17 24 30 34 38 36 41 42 43 44 47 45 41 37 31 26 27 28 29 28 24 21 19 16 15 15 11 11 11 9 10 12 11
18 17 25 34 34 36 37 41 42 40 47 47 43 40 34 30 26 29 27 29 28 26 21 19 17 17 16 13 14 12 10 10 12
28 13 22 30 35 32 33 36 40 42 46 49 47 44 40 35 30 28 29 31 31 28 23 21 19 17 16 16 15 14 13 10 11
31 17 7 18 26 28 25 32 38 41 45 48 48 46 43 38 33 30 30 32 33 32 29 25 20 20 18 18 17 17 18 16 14
32 28 21 10 6 18 20 25 31 34 36 42 45 47 46 44 40 35 33 32 33 33 32 30 27 24 23 21 20 19 18 18 19
28 27 23 22 16 11 7 15 17 24 28 32 38 41 43 44 44 42 37 34 32 33 34 34 33 31 27 26 24 23 22 20 20
27 31 29 23 19 15 8 6 9 16 18 21 27 36 38 40 41 42 43 42 38 34 33 36 37 36 34 32 30 28 26 24 22
25 25 27 26 22 18 14 6 3 8 14 22 25 28 30 29 33 39 40 42 42 40 38 35 37 40 39 39 39 36 31 28 26
21 22 23 24 24 21 18 15 7 7 13 16 22 26 27 30 31 33 33 35 39 41 40 39 38 36 39 42 42 41 39 36 34
19 21 21 21 21 21 18 15 14 11 6 13 18 22 29 30 28 29 28 28 33 36 37 39 40 39 37 37 40 43 44 42 41
19 19 18 18 19 18 19 17 14 14 11 7 11 19 22 25 29 34 34 32 31 32 32 33 33 37 37 37 38 38 39 42 46
21 18 18 20 19 18 17 17 15 11 10 8 5 6 11 16 24 31 33 31 31 31 29 29 28 30 31 31 31 33 35 38 40
25 24 21 19 21 21 20 18 17 14 10 8 9 5 4 6 17 22 26 28 30 28 28 25 25 27 28 29 29 28 29 31 36
33 29 26 23 22 24 22 18 19 17 15 14 8 8 5 3 7 16 21 20 19 22 26 27 28 30 30 28 27 29 30 30 31
34 35 30 26 28 25 25 22 20 23 19 17 18 12 11 8 7 8 11 18 28 30 28 32 32 35 32 31 28 27 28 28 30
38 36 35 31 31 32 29 27 25 24 24 23 20 20 18 16 18 17 14 15 19 24 24 29 34 35 35 30 30 27 27 26 26
37 37 35 34 33 35 35 29 28 25 27 27 25 23 21 21 20 22 21 20 19 20 27 25 33 37 34 27 29 30 29 25 21
32 35 36 36 36 34 37 32 28 27 27 27 27 27 26 24 23 23 25 28 28 23 25 32 30 33 35 30 26 24 26 27 21
24 25 27 28 34 31 33 34 30 28 28 26 27 28 28 29 27 27 23 25 26 30 28 25 33 28 28 30 27 25 27 29 28

GFSFLT1_850_spd_075.txt.gz
Wind_Speed
11 27 28 29 31 33 37 37 34 32 31 34 35 34 28 24 24 27 26 21 18 16 14 13 9 7 9 9 8 10 10 10 10
14 9 26 29 28 31 36 39 38 35 33 31 36 35 32 27 24 26 27 25 22 20 16 15 13 10 8 7 9 8 8 10 9
22 8 13 23 27 27 32 33 33 35 35 34 33 36 36 32 28 25 25 25 24 24 21 18 16 14 12 11 10 11 9 8 9
24 19 2 12 18 21 24 30 29 32 36 36 36 39 39 36 31 28 27 26 24 25 23 22 19 17 15 14 12 11 11 9 9
24 24 21 12 2 10 17 22 24 28 29 32 33 35 40 41 37 31 29 26 25 25 27 25 22 20 18 17 15 16 15 14 14
24 25 25 22 16 8 5 8 16 19 25 26 25 30 35 40 41 39 34 31 26 26 28 30 27 25 22 20 18 18 17 15 14
22 25 26 25 22 15 8 5 11 14 17 18 21 23 26 32 36 40 39 36 32 29 28 31 32 30 28 24 22 22 20 19 17
20 23 24 24 23 21 14 4 5 8 13 18 19 21 24 27 28 31 35 39 38 35 32 30 32 34 33 32 30 28 27 24 21
18 20 21 21 20 20 20 17 9 4 11 16 22 24 25 23 25 29 32 33 34 36 37 36 34 34 36 37 37 36 32 29 27
16 18 19 21 21 20 19 18 16 12 7 12 15 23 25 26 26 29 29 29 32 34 33 33 36 37 37 37 39 39 40 36 34
16 17 20 20 20 20 19 18 16 14 10 6 9 13 19 24 27 28 27 28 30 30 30 31 31 35 36 37 38 37 39 40 39
17 18 18 19 19 19 19 20 19 16 12 10 5 6 14 21 22 26 28 30 29 30 30 29 29 31 34 36 37 37 36 35 38
19 18 19 22 22 21 20 20 20 18 16 13 11 8 6 11 18 24 22 25 29 31 32 30 28 29 31 32 34 35 36 36 37
18 20 23 22 23 23 22 22 21 21 18 17 15 12 10 8 8 17 19 23 26 27 27 28 28 30 30 30 31 32 33 32 34
22 22 23 23 25 25 25 24 23 22 21 20 19 16 14 10 8 6 9 19 18 21 25 27 28 26 29 30 31 32 32 33 33
23 24 23 23 23 27 29 27 25 25 22 23 24 21 17 18 15 10 7 9 15 22 26 25 23 24 30 31 30 31 31 32 33
24 25 26 25 24 26 29 30 29 27 24 23 26 27 24 19 19 21 18 15 16 16 19 21 27 31 28 28 28 28 28 29 31
19 24 25 24 25 25 27 30 32 30 26 24 30 30 28 26 23 19 22 21 21 21 20 17 19 26 27 32 31 30 26 23 26
21 24 27 23 22 22 22 27 26 26 22 26 29 32 25 26 27 26 24 25 27 22 23 24 20 23 29 33 37 34 31 28 25
18 23 23 24 28 28 26 28 24 18 23 26 30 32 34 31 30 29 29 28 28 28 24 27 26 24 26 31 34 33 32 29 22

GFSFLT1_850_spd_078.txt.gz
Wind_Speed
5 26 26 26 27 28 28 26 26 25 24 25 27 26 26 24 21 17 16 14 12 12 10 9 9 7 8 8 11 10 9 8 6
13 9 24 24 24 26 27 28 27 26 24 22 24 27 27 27 25 21 16 16 14 13 12 10 11 9 9 10 10 9 9 7 9
19 1 5 20 21 22 24 25 26 25 25 25 24 24 26 26 27 24 21 19 18 15 14 13 12 13 12 10 10 11 9 8 8
20 23 10 1 12 19 20 21 23 24 24 24 23 25 25 26 26 26 24 21 19 20 17 16 16 16 15 13 12 12 13 11 9
18 20 20 14 7 2 14 18 19 20 19 20 20 21 24 26 29 26 23 25 21 19 19 18 17 17 16 14 14 15 14 12 11
19 22 23 20 11 13 11 8 11 14 16 17 16 17 20 23 24 25 29 26 24 22 20 20 20 19 19 17 16 17 17 16 15
18 19 20 20 22 20 13 6 7 8 5 10 12 16 15 18 21 24 27 32 29 27 24 22 22 24 21 19 19 18 19 18 19
16 18 20 20 21 22 20 14 7 3 7 4 6 11 16 18 18 19 21 27 32 32 30 28 25 24 26 26 22 21 20 20 20
16 17 17 18 18 18 19 19 16 11 2 8 11 11 15 15 16 17 19 23 28 28 29 31 31 30 28 27 26 26 27 26 21
15 15 16 17 16 17 17 18 18 17 12 3 4 5 9 17 18 17 18 19 21 27 30 28 30 32 32 32 32 30 32 33 32
12 13 14 15 15 16 16 15 17 17 16 14 6 4 6 6 9 16 19 22 22 22 22 25 29 31 33 34 34 34 33 32 34
9 12 12 12 14 15 15 16 17 17 17 16 16 12 8 9 13 13 13 18 23 23 21 22 24 26 30 32 35 35 35 34 35
9 10 11 13 14 14 14 16 17 17 16 16 16 17 16 14 9 13 15 17 17 23 24 24 23 23 25 28 33 35 36 36 36
10 11 12 13 13 13 14 16 17 17 17 16 17 18 17 16 15 12 13 22 20 22 22 22 23 24 25 26 28 32 33 33 35
12 12 13 13 15 15 14 16 17 17 17 17 18 19 20 19 18 16 14 14 18 20 19 23 23 25 28 26 28 30 33 34 35
12 14 14 14 15 17 17 16 16 20 20 21 20 21 20 21 21 20 18 16 15 14 16 13 18 21 24 27 26 25 28 31 33
10 11 13 14 15 15 17 17 18 19 22 22 21 21 22 21 21 22 20 18 15 15 16 14 14 14 20 23 25 25 25 26 27
9 11 13 13 12 12 15 17 19 18 18 20 22 23 22 22 21 20 21 20 17 19 18 18 21 19 18 22 27 24 27 23 22
10 12 14 15 14 14 15 17 17 19 20 19 17 19 22 22 23 22 21 22 23 23 26 25 24 26 23 22 32 29 31 30 32
9 11 12 13 14 15 17 18 18 19 19 20 25 26 22 24 25 25 24 24 24 28 26 28 27 26 26 30 33 30 31 30 31

GFSFLT1_850_spd_081.txt.gz
Wind_Speed
10 27 24 27 30 30 30 28 26 23 22 21 22 21 19 17 15 12 13 12 11 9 7 9 10 6 7 9 9 7 9 7 4
4 18 30 27 32 32 30 30 27 25 23 22 21 21 20 19 18 16 14 14 12 11 9 8 7 7 8 8 8 9 10 7 8
13 3 15 11 19 31 30 30 28 25 24 22 21 20 20 19 19 18 18 15 16 13 12 11 13 10 10 9 10 9 9 9 10
15 19 21 14 12 11 21 31 29 26 26 24 20 19 20 20 19 19 18 17 16 16 15 14 12 9 12 12 10 11 12 12 7
14 17 17 18 12 9 6 7 20 26 25 23 21 19 19 20 20 19 18 18 17 16 16 15 17 15 17 15 14 13 14 12 11
17 19 22 17 14 8 5 11 6 12 14 18 20 19 19 18 18 21 22 21 19 18 17 17 16 16 18 16 15 15 15 17 15
18 21 21 20 21 11 3 9 7 8 12 9 10 16 18 18 17 20 19 21 22 19 20 19 18 20 20 19 18 17 17 18 19
18 18 19 20 24 22 18 5 4 3 1 6 10 7 5 11 12 15 18 19 23 23 22 22 22 20 21 23 21 19 19 20 19
16 16 16 17 17 16 16 17 14 8 4 5 6 8 9 8 8 12 15 16 18 24 27 26 26 25 25 24 23 23 25 24 21
15 15 14 14 14 14 15 14 14 15 14 11 2 3 5 13 17 13 13 15 19 18 23 23 27 29 27 29 30 26 28 31 31
12 11 11 11 11 10 11 11 13 15 15 15 12 8 5 6 9 13 20 14 17 21 23 22 24 29 31 33 32 32 31 32 33
8 8 7 7 8 8 8 9 11 11 10 12 10 15 13 9 9 11 15 15 13 16 22 24 26 27 29 31 34 34 33 33 35
5 5 6 6 8 7 7 9 10 10 10 10 11 12 12 13 12 10 10 15 18 17 15 21 25 27 29 30 31 33 34 36 36
2 4 6 8 7 8 8 9 10 10 10 9 11 12 12 12 12 15 15 13 17 21 20 20 20 25 25 29 32 31 32 34 34
2 3 4 6 8 8 10 11 11 12 12 13 15 15 13 14 14 14 13 17 15 17 18 21 23 22 24 28 32 31 32 35 35
2 2 3 4 6 7 8 9 11 14 15 17 18 18 17 16 17 16 15 18 17 15 16 19 17 16 18 22 24 27 31 28 30
2 3 5 6 6 6 7 10 12 14 16 18 18 19 20 19 18 18 18 15 16 15 15 15 13 17 18 23 16 16 19 23 22
2 4 6 8 8 8 9 9 11 13 14 16 18 19 18 19 19 20 19 19 17 17 18 17 19 19 20 22 24 24 22 20 19
3 4 5 6 9 10 11 12 12 13 14 16 17 18 19 17 19 19 21 23 23 21 24 26 27 27 28 31 33 31 29 25 23
4 5 6 6 7 10 11 13 15 14 14 15 16 16 17 19 22 23 23 24 25 28 25 26 27 27 27 28 33 34 32 30 29

GFSFLT1_850_spd_084.txt.gz
Wind_Speed
29 21 25 30 36 32 31 36 34 27 24 23 22 20 21 20 17 16 12 8 10 4 6 6 12 7 5 9 8 11 12 7 6
10 11 39 34 30 38 35 37 36 31 24 23 24 22 19 17 15 12 13 11 12 13 7 4 7 6 6 6 10 8 8 7 7
14 21 13 18 21 18 38 30 35 34 26 22 21 23 21 20 18 15 18 16 15 11 6 6 6 10 12 5 6 8 9 7 6
17 16 18 12 6 1 18 23 27 32 30 24 22 22 23 20 18 18 18 22 19 20 18 8 8 10 14 9 9 11 9 9 9
19 18 15 16 13 27 5 9 10 17 29 26 25 24 25 25 21 17 17 17 19 16 14 20 21 10 12 15 14 13 13 9 9
22 21 20 17 22 20 17 6 13 13 11 14 20 28 24 23 21 23 21 20 17 18 16 13 17 18 19 21 19 15 16 13 10
23 23 22 20 18 18 14 8 9 10 4 15 8 9 14 25 22 21 23 23 21 19 19 17 15 16 18 20 17 16 15 15 16
23 23 23 22 23 22 11 5 6 8 9 5 3 10 14 18 18 17 17 18 22 21 20 21 20 19 18 22 21 18 19 19 19
20 22 22 21 21 21 22 15 2 4 16 13 11 8 2 7 16 7 15 18 17 20 23 21 22 22 22 21 23 21 20 22 20
18 19 19 19 19 19 18 17 18 14 6 7 12 19 14 8 7 11 10 11 16 17 19 26 25 24 25 26 26 25 24 25 27
15 15 16 16 15 15 15 14 15 16 17 15 13 2 4 7 8 8 11 16 16 15 17 19 20 28 29 28 32 30 28 28 30
12 12 12 12 11 11 11 12 11 13 11 10 10 12 12 11 5 6 10 14 17 20 20 21 23 23 25 29 33 32 30 29 30
9 9 8 8 8 7 8 9 8 9 8 6 6 6 9 11 9 8 6 8 12 15 19 18 23 23 26 28 31 32 31 30 33
7 6 5 5 5 5 6 7 8 7 7 6 7 7 6 5 10 9 9 12 10 11 14 19 22 23 21 22 27 30 33 32 30
5 4 4 4 3 3 4 5 5 6 6 7 9 10 12 10 8 11 11 13 14 13 11 13 13 17 22 22 22 22 24 28 32
5 4 4 4 3 3 2 4 6 7 9 11 14 14 11 11 16 13 13 16 15 14 11 12 15 16 13 14 18 15 21 22 25
7 5 3 3 3 3 4 4 5 6 9 11 13 12 13 15 10 13 14 16 12 14 12 13 14 15 17 16 20 19 20 15 14
5 4 3 1 1 2 4 6 7 8 8 10 13 13 12 14 14 15 12 11 15 16 18 19 21 23 25 27 27 24 23 23 25
6 4 3 3 2 1 4 6 8 10 9 12 13 15 15 15 15 15 17 19 21 21 19 22 24 25 25 27 27 26 26 26 26
5 4 2 2 2 2 3 4 7 11 13 12 13 14 16 17 18 18 18 21 23 27 28 26 27 23 24 24 27 28 30 27 27

GFSFLT1_850_spd_087.txt.gz
Wind_Speed
31 29 34 31 21 23 24 35 30 26 29 27 28 32 28 22 22 15 14 14 8 9 8 11 10 7 9 9 12 12 10 8 10
27 31 38 42 32 24 20 37 34 27 28 25 26 28 28 25 22 19 15 11 11 8 7 7 5 11 7 10 9 8 8 9 7
9 17 34 33 45 29 19 30 39 30 28 27 25 26 25 24 22 20 17 20 14 13 12 12 8 13 8 9 9 7 8 8 9
9 9 16 28 31 26 13 14 25 37 32 28 25 24 23 22 22 20 19 20 20 16 16 11 11 7 12 10 11 4 4 9 11
11 12 14 19 27 24 21 22 9 27 21 26 26 24 24 23 20 18 20 23 21 22 23 18 17 12 10 16 12 10 13 11 10
16 14 15 19 20 20 24 26 13 14 14 11 22 24 22 21 19 19 18 20 22 22 21 21 23 21 19 18 15 16 16 15 12
17 18 19 23 22 19 18 22 25 8 13 27 11 21 25 23 24 23 22 19 17 17 18 19 18 18 19 21 20 18 18 18 14
19 20 21 20 20 18 16 13 11 13 13 14 12 10 22 21 17 16 19 23 21 20 21 18 17 17 18 18 18 17 16 17 18
20 20 22 22 24 22 16 10 7 8 8 9 4 2 4 13 18 20 17 20 20 21 19 20 20 20 19 19 22 20 18 14 14
22 23 23 23 23 24 23 23 18 20 14 5 8 7 8 5 9 19 25 18 20 21 21 23 21 20 22 23 22 21 23 22 24
22 21 20 20 22 20 18 19 21 21 21 18 16 7 2 2 3 5 9 15 15 11 13 17 21 24 27 25 24 24 25 22 24
20 19 18 15 12 17 16 17 17 16 13 11 14 14 11 8 6 3 2 5 8 13 14 16 17 20 20 21 24 25 26 25 25
17 15 15 14 12 9 9 11 11 10 6 3 5 6 6 5 5 5 5 4 5 5 9 12 17 18 22 21 23 24 24 25 24
14 11 12 10 7 9 6 4 3 3 1 1 2 2 1 1 3 3 2 5 7 8 7 6 7 9 13 18 16 20 20 22 23
13 13 12 9 7 5 4 3 3 2 2 5 8 8 7 7 7 6 7 8 7 8 7 7 9 11 10 6 8 13 16 16 17
14 13 12 11 7 5 4 4 4 3 4 8 10 11 9 9 8 6 5 6 8 8 10 9 11 5 4 7 12 15 17 16 19
12 11 9 6 6 3 5 5 4 4 6 8 10 10 8 5 4 8 5 4 3 6 5 9 14 16 17 19 20 20 21 19 18
11 8 4 4 5 4 4 4 4 4 5 6 6 6 6 6 8 8 9 9 9 9 8 8 13 15 17 21 24 22 22 24 23
8 7 7 6 4 5 3 1 6 6 4 7 8 9 11 13 13 13 11 12 13 17 20 20 19 16 17 19 23 25 22 21 24
10 8 8 9 9 7 6 4 4 7 8 10 11 11 11 13 13 15 18 18 19 23 17 18 19 19 16 16 19 20 21 22 24

GFSFLT1_850_spd_090.txt.gz
Wind_Speed
25 40 36 29 21 25 34 36 31 29 25 24 27 33 28 24 22 20 15 14 14 14 10 11 10 8 6 8 11 12 14 12 12
19 26 36 31 25 22 21 30 36 31 25 22 28 31 29 28 23 23 19 14 14 11 10 7 14 12 14 10 10 14 11 11 10
6 17 21 27 31 22 20 18 31 34 27 22 26 27 31 29 25 23 21 18 16 13 11 11 9 8 11 9 13 11 11 9 11
4 6 15 24 36 28 24 19 28 29 28 27 24 25 27 29 27 23 20 21 21 17 15 15 15 14 11 11 9 9 9 10 12
3 2 9 16 26 27 20 19 25 19 24 24 25 25 25 24 24 22 22 22 25 22 18 17 15 13 10 13 13 11 10 9 10
7 7 6 16 24 29 24 19 16 26 19 21 21 26 25 24 22 23 25 24 24 24 23 23 21 20 17 13 15 14 14 12 12
11 9 10 13 19 20 18 18 17 24 29 26 21 19 19 24 25 27 27 24 22 24 25 23 21 20 20 20 18 17 17 18 17
12 12 14 14 15 18 18 17 18 19 18 15 30 27 21 23 28 27 27 26 25 23 22 22 21 19 18 17 18 18 17 18 18
17 16 16 16 19 17 18 18 19 15 13 19 26 30 27 22 17 13 15 23 26 25 22 22 22 23 21 19 19 19 18 18 18
21 21 24 26 25 21 19 15 15 15 16 15 15 16 15 18 20 11 11 18 14 13 17 21 21 23 23 22 22 20 20 21 22
27 25 23 23 25 22 21 23 23 22 21 19 17 13 8 10 9 13 14 18 16 15 18 23 23 23 24 25 23 20 21 22 23
25 23 22 21 20 22 23 22 20 19 18 16 15 14 14 12 10 6 5 12 18 22 23 23 20 17 18 17 17 19 20 23 26
24 20 17 16 15 15 15 15 13 11 10 9 10 10 9 9 10 8 6 5 3 0 2 3 7 9 10 13 18 21 22 22 24
21 18 15 12 9 9 9 7 7 7 6 5 4 4 4 5 6 6 5 4 2 2 3 2 1 4 1 3 7 11 15 15 14
23 20 15 10 8 7 6 6 7 6 6 6 5 6 6 7 6 7 6 4 3 3 2 2 4 6 5 2 6 6 9 10 12
22 19 15 11 9 8 7 8 8 8 7 6 6 8 8 9 9 10 8 7 6 6 6 5 4 3 4 5 7 11 14 15 14
23 18 15 12 10 10 10 11 12 11 9 8 7 4 2 4 5 7 9 8 8 8 8 7 8 9 10 12 14 14 13 15 16
21 20 15 11 12 13 12 9 8 6 5 4 3 3 4 3 1 3 5 8 9 9 8 9 10 12 13 16 17 16 17 19 20
18 16 13 10 10 10 8 8 6 5 3 2 1 1 2 5 6 6 4 2 3 8 11 14 16 18 21 20 18 22 23 23 21
14 11 11 11 11 10 9 8 4 1 1 2 3 3 4 6 7 7 8 9 9 9 5 6 8 11 15 20 26 29 29 28 27

GFSFLT1_850_spd_093.txt.gz
Wind_Speed
23 32 35 35 31 33 36 37 32 28 25 21 24 24 24 25 21 17 14 10 9 13 12 9 9 9 6 8 10 13 13 14 11
26 24 31 32 32 33 33 36 35 31 27 23 22 25 25 27 23 20 16 14 11 10 13 11 11 12 10 9 9 13 12 12 12
18 21 21 28 25 30 30 33 36 33 30 27 23 24 25 29 26 22 18 16 14 13 12 11 8 8 10 11 11 11 14 12 11
14 16 17 16 25 24 28 18 28 31 29 27 23 21 24 28 28 24 20 19 16 16 16 14 12 11 12 9 10 11 12 10 11
9 8 13 19 21 24 28 31 16 22 25 25 22 20 22 24 28 27 25 21 20 21 21 17 15 13 12 10 12 9 10 10 9
13 11 9 10 20 26 33 31 27 23 15 15 23 20 19 19 21 23 25 23 21 19 23 21 18 16 15 12 11 13 13 12 12
13 13 11 13 15 22 29 29 27 22 23 20 22 18 17 16 19 22 22 23 22 21 21 23 20 20 19 19 19 17 16 16 16
11 12 12 11 15 19 21 22 22 23 22 23 29 20 22 9 14 21 25 25 23 23 21 23 23 23 22 20 18 18 19 18 17
13 13 14 13 14 17 13 10 12 20 16 12 19 17 26 26 22 13 11 12 21 23 22 21 22 22 21 22 21 17 17 16 16
19 17 16 17 17 17 14 15 15 14 14 15 15 19 27 27 25 25 20 11 11 13 20 17 20 21 22 23 23 21 21 21 21
27 26 23 23 21 19 17 16 17 17 17 15 14 14 16 15 17 24 25 20 16 18 17 13 16 15 21 23 22 22 23 22 21
29 27 24 23 24 26 23 20 17 15 15 13 11 8 7 7 8 11 15 27 26 19 15 18 21 19 16 16 20 21 22 21 20
26 25 24 24 22 19 18 17 14 12 12 10 8 7 5 4 4 7 8 10 12 16 13 12 10 5 7 11 12 11 10 15 16
27 23 21 20 18 17 16 13 8 6 7 6 6 5 5 4 4 4 4 4 4 6 6 9 7 1 4 6 6 4 0 5 8
28 25 21 16 15 14 13 9 6 4 4 4 4 5 6 6 7 6 5 6 6 6 6 7 7 8 4 3 3 5 5 6 8
25 21 18 15 12 11 9 6 4 5 5 6 6 6 7 9 10 11 9 9 9 9 10 10 9 8 7 8 9 9 12 12 12
23 19 15 12 10 7 4 3 5 5 3 4 4 5 5 5 6 7 9 10 10 10 11 11 10 10 10 12 14 15 16 17 16
21 18 15 11 7 5 5 5 5 4 2 1 3 4 4 4 4 4 5 7 9 9 10 11 12 12 13 16 18 19 20 22 23
20 17 12 9 7 6 5 4 3 3 3 3 4 4 4 4 4 3 3 2 2 3 6 8 11 15 17 18 22 26 28 27 26
18 14 12 11 10 9 7 5 3 3 5 6 5 4 3 2 2 2 2 1 2 3 2 3 4 7 10 14 18 20 22 23 24

GFSFLT1_850_spd_096.txt.gz
Wind_Speed
27 27 36 38 39 37 35 36 35 31 30 28 27 22 20 22 20 15 11 9 6 5 8 4 4 4 3 5 6 7 6 8 10
31 31 36 40 41 39 27 30 34 35 32 29 26 24 21 20 22 19 14 11 8 7 6 8 5 6 6 6 5 7 10 10 10
28 32 34 35 39 39 36 36 30 33 32 31 25 24 22 20 20 20 16 14 11 9 9 8 9 7 9 9 10 9 9 11 10
33 34 34 35 41 35 31 35 32 34 31 30 27 24 22 21 20 21 19 16 13 11 9 9 9 7 7 7 7 7 9 10 11
23 27 31 32 31 30 34 35 28 25 28 29 26 25 22 19 19 21 21 18 14 15 15 15 13 12 11 9 7 8 6 7 9
19 21 23 27 29 29 27 30 29 18 15 20 23 20 21 18 18 18 21 22 20 18 17 15 16 16 14 10 8 7 9 10 9
17 17 17 21 26 28 29 28 25 28 26 13 11 9 16 15 14 14 15 17 17 16 15 14 13 15 14 14 13 13 13 14 14
18 15 16 19 19 18 23 25 25 23 22 23 22 20 15 9 8 7 11 13 14 16 16 16 15 16 17 16 16 15 14 15 16
16 17 16 17 17 18 20 22 24 25 23 19 22 21 20 17 11 6 4 2 8 13 15 16 17 17 17 17 18 17 15 15 15
14 17 18 17 16 14 14 14 17 18 18 18 15 17 17 17 19 20 15 14 9 7 6 10 12 16 17 15 18 19 19 19 17
16 16 19 20 19 19 19 18 18 18 16 13 11 11 13 14 15 19 19 19 22 20 11 12 13 11 12 13 13 15 19 19 18
21 23 23 24 23 23 22 23 21 20 18 14 11 7 6 9 10 11 13 15 18 25 23 20 17 15 14 13 13 15 20 19 18
22 23 24 25 23 22 19 18 15 13 14 11 9 8 7 6 4 4 3 1 3 5 8 9 12 12 12 14 14 12 14 13 13
24 24 24 22 22 20 19 16 12 12 11 9 8 7 5 4 3 2 1 0 0 1 1 4 9 9 8 8 10 10 12 4 9
26 25 24 22 21 19 16 11 5 6 6 5 5 4 4 4 4 4 3 2 3 5 8 8 9 8 8 7 5 3 4 9 12
26 24 23 19 16 15 12 7 4 2 2 3 5 6 6 7 7 7 6 6 7 7 9 9 9 8 8 8 6 5 7 8 10
23 20 17 15 11 9 7 3 1 3 4 4 4 5 5 6 6 7 9 10 10 11 11 11 11 11 11 11 10 12 12 12 14
18 16 14 11 7 4 2 3 3 3 3 3 3 4 3 4 4 4 6 8 9 10 11 12 11 13 13 15 16 17 19 20 21
20 19 14 9 5 1 4 4 3 2 4 6 6 6 5 4 3 2 3 3 3 3 5 7 9 10 11 11 13 14 15 16 16
21 17 15 11 6 6 8 8 6 4 5 6 8 8 7 6 6 4 4 3 3 2 1 1 3 5 7 9 11 14 15 15 15

GFSFLT1_850_spd_099.txt.gz
Wind_Speed
27 31 29 23 25 32 35 33 31 28 25 24 26 23 22 18 17 12 8 7 8 4 6 6 4 4 5 4 5 5 6 9 10
26 31 31 29 26 30 31 34 30 30 28 27 25 25 23 19 19 18 12 9 8 5 4 8 5 4 4 4 4 4 6 9 9
26 26 27 24 29 33 34 32 33 29 30 27 26 26 25 20 18 17 17 13 11 8 5 5 8 7 5 9 7 8 7 7 9
24 26 33 27 29 32 33 28 28 28 23 26 28 28 26 23 19 17 17 16 11 9 8 7 4 4 5 4 5 8 7 8 10
18 21 24 32 30 34 39 37 25 33 26 21 24 26 27 26 21 18 18 19 15 12 11 9 8 8 8 6 6 6 6 6 8
15 17 24 26 25 28 35 40 34 26 27 23 25 21 21 22 22 21 19 19 20 17 14 12 11 11 11 7 8 7 6 7 8
13 16 19 21 22 25 28 29 31 25 24 21 19 21 21 17 18 19 20 17 19 19 16 14 12 10 11 10 11 11 10 10 10
13 15 17 17 21 23 23 25 29 29 23 26 16 7 18 11 15 17 17 15 14 13 12 12 12 11 11 12 12 11 11 11 11
16 17 17 17 19 22 26 28 29 24 22 22 16 15 16 15 15 14 11 11 12 12 12 12 12 11 12 12 15 15 15 14 13
14 16 17 17 17 17 17 20 22 23 22 19 15 14 17 21 21 16 12 7 5 5 4 4 3 6 10 12 14 15 15 14 13
16 18 17 18 19 18 20 23 24 21 22 20 21 19 16 17 15 12 13 14 11 11 10 7 3 3 4 5 5 8 10 12 13
18 19 20 20 18 19 17 17 18 21 19 18 15 14 14 12 13 12 12 13 13 13 15 17 15 14 9 8 7 7 8 10 13
19 20 21 21 21 20 21 21 22 20 20 19 17 13 10 9 8 7 7 4 2 2 2 10 12 12 9 7 5 6 6 8 4
22 25 26 25 24 23 21 18 15 16 16 15 13 11 10 8 7 5 4 3 4 5 6 7 9 9 6 5 5 2 4 3 1
27 27 24 23 23 22 19 15 10 12 11 11 11 9 8 7 7 7 6 5 5 5 7 9 8 5 3 3 2 2 3 4 7
24 23 24 21 19 18 15 11 9 6 6 5 6 6 6 7 6 5 5 7 8 9 9 8 8 7 7 6 4 3 4 5 6
20 20 19 15 12 10 8 6 4 3 4 5 6 6 7 8 8 9 9 9 10 11 11 10 9 9 8 8 9 10 11 11 12
15 15 13 12 9 6 2 1 1 2 2 3 5 6 6 7 7 7 8 9 10 10 11 12 11 10 11 11 12 12 13 12 11
7 9 10 9 6 3 2 3 3 3 3 5 5 5 5 6 7 7 6 6 6 7 6 6 7 8 8 7 7 7 7 8 9
14 16 11 8 5 5 5 5 4 4 5 7 7 7 6 6 6 5 5 5 5 3 2 2 1 1 2 4 5 6 6 7 6

GFSFLT1_850_spd_102.txt.gz
Wind_Speed
35 35 32 26 26 25 24 24 22 20 19 19 20 18 16 15 13 9 7 6 7 6 6 5 8 6 6 6 8 7 8 6 6
33 37 32 26 24 24 25 24 24 22 19 18 17 18 15 15 13 13 10 6 9 6 6 9 7 7 7 6 7 7 8 6 7
31 29 33 30 26 24 21 25 24 21 18 16 15 16 15 15 12 12 14 11 10 9 7 9 10 7 6 7 7 7 7 7 9
27 33 34 32 31 23 21 22 22 29 17 14 14 15 15 15 14 12 11 11 11 9 9 8 8 8 7 4 7 8 8 8 9
22 23 28 26 34 31 28 26 23 22 24 14 11 15 16 17 15 13 12 12 13 11 10 10 9 8 7 5 6 6 7 6 7
17 20 22 26 23 26 29 30 30 32 26 27 20 13 16 17 19 17 15 14 14 15 13 11 9 9 9 9 7 6 6 7 7
16 17 18 22 23 22 22 24 31 33 32 36 28 22 17 12 14 17 16 15 15 15 16 15 12 12 10 10 11 10 9 8 7
13 15 17 18 18 18 20 22 22 32 27 20 25 20 21 18 18 18 16 13 14 14 14 16 15 12 10 10 9 9 12 11 10
13 14 15 16 15 16 18 20 22 25 26 22 21 22 22 22 21 16 12 14 13 14 13 13 15 13 12 11 11 16 14 14 11
10 11 11 13 15 16 17 18 21 24 26 21 17 17 16 17 16 19 19 15 14 12 11 11 12 10 11 14 15 14 15 15 13
10 10 14 14 16 17 20 20 21 21 23 20 20 18 15 14 15 16 21 21 16 11 9 8 6 7 7 8 8 8 11 12 15
9 12 13 12 13 13 15 16 15 17 18 20 21 17 18 16 15 18 15 11 15 16 13 12 14 14 13 9 8 6 5 6 8
11 13 14 15 15 16 14 14 17 22 27 25 25 21 15 14 17 15 15 16 18 19 15 19 18 17 15 12 8 9 6 4 3
13 15 15 16 16 18 18 19 21 22 23 22 21 19 16 14 14 13 12 11 11 15 15 12 10 12 11 9 8 7 6 6 5
16 18 21 23 24 22 20 18 14 18 17 17 16 15 14 13 13 12 12 12 12 13 14 13 11 9 9 9 9 7 5 4 3
22 24 23 21 20 19 16 14 11 9 10 11 11 12 12 12 12 12 12 11 11 12 12 10 10 9 7 7 4 4 5 5 4
22 21 19 17 14 13 12 9 5 3 4 7 8 9 9 10 10 11 11 9 9 7 7 7 7 6 6 9 10 9 9 9 11
19 17 14 11 11 10 8 6 4 2 1 3 3 4 5 6 7 9 13 13 13 14 13 12 8 9 10 6 9 12 13 14 15
14 13 12 9 8 6 8 8 7 6 3 1 2 2 2 4 5 6 6 9 11 11 11 12 13 13 12 12 11 9 8 7 5
7 11 8 6 1 0 2 5 8 7 5 4 4 2 4 4 4 5 6 6 6 8 8 8 7 7 6 5 4 2 2 2 2

GFSFLT1_850_spd_105.txt.gz
Wind_Speed
41 36 28 30 32 23 25 25 23 19 19 19 19 16 15 12 10 7 7 8 11 7 6 6 10 7 6 5 7 7 7 6 6
41 37 35 29 28 30 36 23 21 20 19 18 19 17 15 13 13 13 12 14 2 11 6 7 6 6 6 6 6 7 8 5 8
36 35 39 30 20 25 25 23 22 22 21 18 17 16 15 13 11 10 9 8 11 5 3 12 12 7 6 6 7 7 7 7 9
33 32 35 34 22 21 27 24 26 28 25 20 18 17 15 14 13 11 9 8 9 4 5 3 4 8 8 7 9 8 10 11 5
23 27 35 41 40 19 24 26 23 23 19 21 20 19 16 15 14 12 11 9 9 8 7 8 8 5 6 6 5 8 9 5 7
21 22 28 29 34 36 19 24 22 23 28 27 17 16 13 15 15 15 13 12 11 11 11 9 7 8 8 8 8 9 7 9 8
22 23 26 26 23 30 35 27 24 27 33 32 26 19 16 18 15 17 16 15 13 12 14 12 12 10 9 8 10 10 9 8 8
10 15 20 23 25 28 31 26 27 26 31 32 31 28 23 20 18 18 17 16 15 14 15 14 14 12 12 11 10 12 13 11 11
13 14 15 17 16 18 22 25 24 23 19 23 25 20 31 27 23 23 18 15 15 16 15 14 14 13 13 12 12 17 18 16 12
12 14 16 16 16 16 18 19 20 22 26 23 24 16 19 23 23 22 20 15 14 13 13 15 15 13 13 16 17 14 18 18 17
11 10 13 12 18 19 19 17 19 21 22 22 20 13 16 15 18 19 21 21 18 15 13 11 12 12 15 14 13 13 15 17 16
10 9 12 14 13 14 17 17 14 17 20 20 19 18 15 13 12 12 12 19 21 18 15 13 9 11 11 11 11 10 8 8 10
6 9 10 11 10 11 12 14 14 15 20 19 19 22 18 14 14 13 19 12 16 18 18 16 13 19 18 14 13 10 8 8 3
9 9 8 9 10 10 10 10 12 20 18 20 21 20 18 15 13 16 15 15 14 17 19 18 19 19 12 9 11 10 9 8 9
10 13 11 11 13 14 14 13 14 18 18 18 18 16 14 14 12 9 11 12 14 13 15 18 15 11 10 11 10 10 10 9 9
13 16 19 20 21 21 19 18 14 12 14 13 13 12 11 11 8 9 8 10 9 11 10 8 7 6 6 6 8 8 9 8 7
22 23 22 21 20 18 17 14 12 12 8 7 7 7 7 7 7 8 7 5 7 6 5 7 8 8 6 6 10 10 9 8 9
20 19 17 16 15 16 15 13 10 8 6 4 6 5 4 5 4 6 11 14 15 15 17 16 11 9 8 9 7 9 11 13 14
16 15 12 12 13 13 14 13 11 9 7 7 7 7 8 6 5 4 4 7 13 11 11 16 17 15 14 11 14 14 12 11 10
13 11 9 5 4 6 7 8 8 7 4 5 9 12 9 5 7 5 4 4 2 3 9 10 12 13 12 10 8 7 7 5 4

GFSFLT1_850_spd_108.txt.gz
Wind_Speed
34 36 26 29 26 32 22 34 26 28 24 18 21 19 15 13 10 7 3 2 9 10 10 7 11 7 5 6 6 7 6 6 1
36 40 43 37 23 36 28 25 30 25 25 20 20 20 17 14 12 14 12 8 4 4 22 13 13 6 7 3 6 5 5 4 8
39 42 42 32 26 32 26 35 32 32 25 18 21 20 17 14 14 15 9 5 7 3 12 4 10 11 6 6 6 5 5 7 8
38 42 44 37 31 13 39 33 33 27 26 19 22 23 20 16 11 8 11 10 5 3 6 3 3 8 10 9 8 7 10 10 6
39 40 36 36 33 14 27 20 30 35 36 26 24 19 22 19 14 15 11 9 6 5 6 6 6 5 9 8 8 9 8 7 7
33 31 27 33 34 30 28 29 16 38 26 30 25 23 23 22 18 16 15 13 8 12 10 9 6 7 8 8 7 7 10 6 9
27 25 25 25 26 18 23 30 29 38 27 26 33 28 27 26 21 17 15 15 13 11 13 14 12 12 9 6 6 7 9 9 7
28 24 26 25 24 24 22 23 36 19 23 26 31 32 28 22 18 19 18 17 17 16 14 13 11 12 10 11 10 14 14 12 11
20 23 24 25 25 25 28 34 32 29 24 31 28 26 23 21 22 29 20 22 21 21 18 14 12 12 10 13 14 15 14 14 13
13 13 12 16 15 18 23 28 28 26 22 26 32 31 25 22 17 24 21 22 18 18 18 20 15 14 17 18 15 14 14 16 16
10 14 9 13 13 13 14 16 21 22 22 24 19 18 18 14 16 16 18 18 15 15 15 16 16 18 15 13 13 14 16 16 15
9 11 11 11 15 12 15 18 18 18 19 17 18 16 13 11 10 13 18 20 19 18 16 17 17 15 14 10 8 8 10 7 7
10 2 3 4 5 10 12 12 12 17 17 18 17 14 14 12 11 10 7 8 10 16 16 16 18 14 14 9 11 11 9 9 11
8 6 5 5 7 8 8 8 9 12 14 18 18 17 18 15 12 12 11 13 10 13 15 16 15 14 14 14 16 12 11 10 10
7 6 8 9 10 9 8 7 8 14 15 16 19 19 18 16 13 9 12 13 12 12 12 15 14 13 13 11 10 9 10 11 13
9 12 14 14 16 18 17 15 10 12 14 15 17 17 17 15 13 11 10 12 11 9 10 11 9 9 8 7 8 7 8 8 8
21 22 21 19 19 19 20 18 16 16 12 12 10 10 12 13 16 11 13 11 11 12 13 10 5 4 3 6 7 7 6 7 7
20 21 19 19 20 20 18 14 11 10 11 10 6 7 7 9 11 8 11 10 10 11 9 12 13 13 13 10 8 8 8 10 12
19 16 15 16 17 18 17 15 14 11 8 10 8 12 10 8 6 4 2 9 12 10 12 15 15 15 16 12 15 14 15 14 12
15 14 10 10 12 11 10 11 12 10 8 7 7 10 7 11 7 3 5 5 5 5 12 14 19 20 20 19 17 15 12 8 6

GFSFLT1_850_spd_111.txt.gz
Wind_Speed
32 33 32 37 33 19 35 35 34 30 24 19 18 22 19 16 15 11 8 11 7 6 12 13 14 8 10 9 8 8 6 6 7
31 33 34 26 36 26 36 36 36 34 25 21 17 22 17 18 13 10 11 7 4 5 16 17 11 11 8 4 5 7 8 4 4
31 32 38 35 37 23 36 41 32 31 27 22 18 22 22 18 18 15 14 10 7 9 6 11 13 10 8 8 8 3 3 7 5
31 37 40 38 39 23 29 35 33 27 30 23 20 21 21 16 16 20 17 13 8 6 9 7 10 13 13 12 10 8 9 7 8
30 35 39 40 40 32 37 32 31 26 30 22 24 21 22 19 15 15 13 12 11 9 8 8 7 12 14 12 13 12 7 6 8
31 42 37 34 36 39 39 30 30 27 30 27 23 24 26 22 21 18 15 15 11 12 11 8 8 11 11 12 12 9 4 2 8
36 41 38 38 40 38 36 39 33 31 30 29 29 29 27 28 22 21 18 16 15 13 15 12 10 12 10 10 10 9 7 7 4
28 32 36 35 37 35 37 34 37 44 28 38 22 30 30 30 29 25 25 22 18 19 18 14 14 11 12 12 11 10 9 10 8
8 20 27 27 26 28 31 30 32 31 18 35 29 31 33 30 28 28 21 25 20 22 17 18 17 13 12 15 14 13 10 11 14
30 18 13 18 17 18 22 24 27 34 28 34 30 34 33 29 26 21 24 25 25 23 23 24 15 17 17 14 11 13 13 11 13
10 15 14 13 15 14 15 14 19 27 28 27 30 30 31 28 24 18 17 21 21 18 16 18 20 22 15 12 12 12 13 14 15
12 9 10 9 8 8 20 22 22 23 28 29 26 24 23 24 18 14 14 13 16 16 16 15 18 18 18 21 16 11 11 8 10
1 4 6 6 5 3 4 9 20 24 22 21 17 15 14 14 14 12 12 14 15 16 16 15 15 15 13 16 16 11 8 6 10
6 4 3 2 4 5 2 5 7 8 17 20 19 17 16 15 14 13 10 9 9 9 12 13 14 15 15 12 11 10 9 9 9
7 5 5 4 3 4 5 5 5 8 8 13 17 19 19 19 16 13 11 11 10 8 10 13 12 12 12 11 11 10 7 9 7
6 7 11 10 11 10 9 7 6 9 11 10 12 15 16 14 14 14 13 11 11 10 8 9 10 12 12 11 11 9 9 11 11
15 15 16 15 15 16 17 14 13 14 12 12 11 14 15 14 12 10 9 12 10 11 12 11 10 8 5 5 6 7 8 8 8
21 21 19 18 16 15 13 12 13 13 12 11 11 13 12 9 9 9 8 9 11 10 11 10 8 8 10 7 5 3 5 5 7
19 17 16 16 15 15 16 13 11 10 9 10 11 9 8 7 5 3 1 3 4 4 4 7 8 10 10 9 8 8 10 12 14
18 18 17 16 14 12 13 12 11 9 9 9 8 7 8 9 8 6 1 3 2 6 10 9 11 14 13 13 15 17 18 16 12

GFSFLT1_850_spd_114.txt.gz
Wind_Speed
32 29 32 34 35 39 36 33 29 24 23 27 24 27 24 20 18 15 12 15 14 15 15 12 13 15 11 7 8 10 9 8 7
27 38 35 34 32 36 37 38 33 26 23 25 23 26 25 23 19 16 15 15 11 12 9 11 12 16 9 8 9 8 8 7 10
26 30 37 33 35 32 35 36 36 29 24 24 21 22 26 23 22 18 16 14 11 9 7 12 15 14 12 11 8 3 7 9 9
31 34 40 39 39 43 32 35 38 35 29 28 25 21 24 23 22 21 19 15 11 8 8 9 11 15 14 14 12 9 10 7 10
33 37 42 44 38 37 35 35 36 39 33 31 27 24 22 24 22 22 20 19 15 12 9 10 8 15 15 14 11 12 11 10 11
25 31 35 38 42 34 35 34 42 39 37 33 32 25 23 24 23 22 22 19 17 14 12 12 10 11 14 14 13 14 12 10 9
5 22 38 41 44 39 39 38 43 40 36 35 34 25 26 27 25 23 18 17 15 13 10 10 11 9 10 11 15 15 13 11 6
24 9 17 34 36 43 43 43 43 40 39 39 36 27 27 29 28 24 24 21 22 20 19 15 10 10 13 13 13 14 15 13 9
32 31 15 15 32 39 42 41 41 37 37 33 29 29 32 32 28 27 24 27 22 24 24 23 19 16 15 16 15 16 12 13 13
8 22 28 4 18 31 37 42 42 41 40 36 36 30 36 32 29 29 28 25 25 20 26 22 22 21 17 15 17 17 14 13 12
18 21 7 4 14 19 26 29 34 35 33 33 26 34 31 31 27 28 30 25 23 25 25 25 26 23 22 17 20 16 14 14 15
12 12 10 7 8 7 6 23 23 27 31 31 30 30 27 25 26 32 25 21 22 22 23 21 20 20 18 21 22 17 16 11 12
8 7 5 5 8 5 2 10 12 19 22 25 24 25 21 19 23 26 18 16 14 12 14 15 14 15 16 18 20 21 16 14 10
7 7 7 7 7 6 4 5 14 11 14 23 24 24 24 25 19 17 15 14 14 13 14 14 14 15 15 13 14 16 14 12 12
6 7 5 6 7 8 9 7 6 9 11 13 12 14 14 13 13 13 13 12 12 10 10 12 15 14 12 12 10 10 10 9 8
4 6 8 8 9 12 12 10 7 6 6 8 13 19 18 16 16 16 16 12 12 10 12 13 13 13 11 10 10 9 10 11 11
9 8 8 9 11 12 13 11 8 9 9 6 6 11 11 13 14 16 18 18 17 16 16 15 15 15 14 10 6 7 9 9 9
11 13 13 9 11 13 15 12 11 11 10 8 9 11 12 11 10 9 5 8 12 12 14 15 14 13 11 8 4 6 7 7 7
14 13 14 15 16 13 12 11 10 10 10 9 7 8 8 6 6 6 6 3 1 3 5 6 7 9 12 8 7 7 6 6 9
13 13 11 14 15 14 12 10 9 9 8 8 8 8 8 6 7 8 6 4 2 5 7 6 5 7 7 9 11 11 13 16 17

GFSFLT1_850_spd_117.txt.gz
Wind_Speed
33 30 44 47 45 43 39 34 29 29 31 30 28 29 28 21 21 19 16 15 15 14 16 13 15 19 14 11 11 9 10 8 10
40 36 38 47 45 45 42 36 33 28 26 29 30 28 28 29 21 20 19 12 12 12 13 13 16 15 16 13 11 10 10 12 11
31 39 36 41 43 45 43 39 33 30 26 24 27 26 27 27 24 21 18 17 14 11 10 13 16 14 14 13 11 10 11 11 9
33 35 37 38 37 40 43 41 36 33 30 28 25 24 25 27 26 23 20 18 15 13 11 13 13 14 14 14 14 11 8 8 10
18 41 38 40 39 39 39 41 37 37 34 30 27 24 24 25 26 25 23 21 18 14 9 9 11 13 14 16 15 15 11 9 10
12 16 22 34 44 43 43 41 36 36 37 34 31 29 26 24 26 25 24 22 19 15 12 11 11 10 16 17 16 15 11 11 11
11 11 23 25 32 43 43 43 38 35 36 38 33 32 30 26 25 25 23 19 18 16 15 12 12 11 12 14 16 16 13 13 12
23 17 12 20 24 32 34 36 38 39 39 40 35 34 33 30 25 23 22 20 18 18 19 16 13 13 13 14 13 12 13 15 16
23 20 11 14 14 21 29 35 37 36 36 39 40 38 36 32 26 26 24 23 23 23 23 19 20 19 16 13 14 13 12 12 14
15 20 14 8 7 13 20 29 35 35 34 36 36 37 34 32 29 28 26 26 24 29 26 21 20 24 21 18 15 14 12 14 14
13 12 14 9 7 5 9 22 28 32 35 34 34 34 33 33 33 33 27 26 27 23 25 25 25 24 24 20 17 17 11 12 13
13 10 10 9 5 4 5 5 9 27 26 25 28 28 27 30 28 29 29 33 30 28 20 23 24 22 26 25 20 19 18 9 7
10 8 6 4 3 4 4 12 13 9 5 16 16 22 22 24 26 24 26 30 30 25 20 20 19 18 19 18 18 18 17 17 16
7 7 6 5 3 1 2 3 11 15 14 15 20 16 19 21 21 19 20 15 13 12 12 12 13 13 13 13 12 10 9 10 10
4 5 4 3 3 3 5 3 8 13 12 12 15 15 19 7 9 17 11 9 8 12 13 12 12 11 11 11 10 10 11 12 12
5 4 5 4 4 4 7 6 5 5 7 5 9 8 10 12 15 13 10 14 12 12 11 11 12 14 12 12 11 10 10 10 10
6 8 8 7 7 7 9 9 8 9 6 4 4 10 15 17 16 16 18 18 16 15 14 14 12 11 11 10 10 9 7 8 9
7 9 9 8 8 9 11 10 10 10 10 8 7 10 11 11 10 9 10 10 13 14 14 15 15 14 13 10 7 6 6 7 7
12 10 10 9 8 9 9 8 8 8 7 8 8 10 11 10 9 7 4 4 3 3 1 1 6 9 9 9 5 3 3 3 4
12 11 10 11 11 11 10 9 8 8 8 8 7 7 9 9 9 10 9 5 3 2 1 2 1 2 1 5 5 5 6 11 12

GFSFLT1_850_spd_120.txt.gz
Wind_Speed
31 34 39 45 43 41 39 35 31 29 30 29 29 26 25 24 19 17 15 14 13 14 14 14 14 16 15 12 10 12 12 10 9
35 39 45 46 46 43 39 37 33 30 29 29 29 27 25 26 21 17 18 16 14 17 17 16 16 16 16 17 13 13 14 14 12
29 33 42 42 46 46 41 38 34 30 28 25 26 28 27 27 27 22 17 17 17 15 12 13 13 16 14 17 15 14 15 13 13
21 31 40 44 46 47 42 39 36 33 30 28 25 25 26 26 27 25 22 20 16 15 12 12 13 15 18 16 17 15 13 13 13
17 31 38 40 43 46 44 41 40 36 33 30 27 22 21 23 23 25 25 21 17 16 14 12 12 17 17 17 18 17 16 13 11
14 21 28 32 35 41 44 42 42 41 36 34 30 28 24 22 22 23 25 23 20 18 16 14 12 11 12 17 17 17 17 15 13
13 17 22 29 28 32 35 38 42 42 39 36 35 32 29 27 25 23 23 22 22 22 20 18 16 14 13 13 17 18 19 17 15
6 7 18 21 21 22 30 37 40 41 40 38 38 38 35 33 29 26 23 22 22 21 22 21 19 17 15 13 15 17 19 17 14
14 8 2 7 21 22 22 29 36 36 38 37 36 40 38 38 34 30 27 23 22 21 21 21 20 19 17 17 17 17 14 14 14
12 10 8 4 9 16 11 14 21 27 31 33 35 32 35 36 34 34 28 25 25 25 24 23 23 21 24 20 19 17 13 12 14
9 9 8 8 7 10 14 9 9 16 22 29 33 28 30 33 32 31 28 28 26 26 26 26 25 22 21 22 22 21 13 11 13
9 9 8 7 6 1 5 11 6 7 15 19 24 28 31 36 30 27 22 25 27 27 24 21 18 22 19 22 26 28 21 15 9
9 10 10 8 6 4 2 5 6 8 6 9 11 15 5 17 27 14 14 20 26 30 31 25 20 22 19 22 22 29 30 20 17
9 10 11 11 11 10 10 7 4 9 10 8 6 6 10 5 13 10 10 14 16 17 20 25 22 18 18 22 21 17 21 21 20
7 8 9 10 11 10 11 9 3 5 9 5 8 3 6 13 6 0 2 6 1 2 7 8 13 15 12 7 7 5 6 7 10
5 6 7 9 10 9 9 9 8 1 4 6 7 9 13 13 7 5 5 7 6 7 7 8 8 8 8 10 9 7 7 7 9
5 6 6 8 8 10 11 11 11 12 9 9 6 8 9 6 14 10 8 9 13 12 13 13 14 15 15 11 11 11 7 7 8
8 8 8 8 8 9 11 12 12 12 13 10 10 9 10 9 8 7 8 7 10 12 13 14 14 14 13 12 10 10 9 7 7
8 8 8 8 8 9 10 10 11 11 11 10 10 10 9 10 11 11 10 10 8 7 6 2 1 4 6 9 7 7 9 8 5
11 12 12 12 11 12 11 10 10 11 10 10 11 11 12 12 12 11 11 10 9 8 6 6 6 7 6 2 3 2 1 4 6

GFSFLT1_850_spd_123.txt.gz
Wind_Speed
31 28 30 29 30 33 34 33 31 28 26 23 23 25 26 22 20 17 15 16 14 14 13 14 13 13 13 12 11 11 11 12 10
29 31 32 33 30 32 36 34 33 30 26 26 25 25 26 24 22 20 17 15 15 13 13 15 16 17 15 15 16 13 12 12 14
31 26 27 32 34 30 36 34 32 30 28 25 26 28 27 25 23 22 18 16 17 17 14 15 16 16 16 15 15 16 14 14 14
25 24 28 35 37 37 37 36 35 33 29 27 26 27 27 26 25 24 23 22 17 16 17 15 13 14 15 17 15 18 17 13 14
19 23 27 36 39 38 38 40 37 36 32 30 27 23 24 25 25 23 24 24 23 20 17 16 15 14 15 17 19 17 18 15 13
7 19 25 30 31 35 39 41 41 38 35 32 29 27 24 24 24 25 24 24 24 21 19 19 16 14 13 15 17 18 18 15 15
1 9 18 25 29 30 33 37 40 38 37 35 35 31 29 28 26 25 21 21 23 23 21 21 19 17 15 15 15 17 17 17 17
10 7 6 13 19 22 23 28 33 35 36 37 37 34 33 32 30 28 28 25 22 22 24 24 22 21 19 17 15 14 16 17 18
17 12 3 4 16 16 21 25 22 25 30 32 33 35 33 34 33 34 33 31 27 24 25 26 25 24 21 19 18 15 14 16 17
12 11 9 3 8 13 16 16 17 22 27 29 30 32 31 28 27 27 32 34 32 28 27 25 24 22 22 21 20 18 15 15 17
9 8 8 8 5 9 11 12 14 17 16 18 22 24 23 20 22 27 24 27 31 31 27 28 25 24 22 24 23 25 19 19 18
5 5 5 4 4 1 6 11 14 13 11 13 13 17 24 23 23 26 29 32 35 34 29 26 27 23 21 22 22 24 24 21 18
4 5 5 3 2 2 2 7 8 7 3 9 12 20 17 15 15 12 22 23 21 24 21 26 25 20 14 13 16 16 22 34 29
5 5 6 6 6 6 5 2 2 8 9 11 9 9 8 9 8 9 10 9 8 12 19 30 26 20 16 11 13 9 19 20 24
5 6 7 8 9 10 8 6 3 7 9 4 5 4 5 5 4 4 5 8 6 6 9 13 14 13 8 9 8 8 5 8 10
5 7 9 9 10 12 12 12 10 6 2 1 2 2 2 6 3 6 2 4 5 7 8 7 10 8 5 6 5 6 6 7 8
8 8 9 9 9 10 12 13 13 14 10 7 4 2 3 1 2 7 3 7 6 6 10 10 9 7 7 8 12 11 11 12 11
8 9 11 11 10 12 14 13 14 14 15 13 11 11 9 5 3 3 4 6 6 6 5 6 8 10 10 10 9 7 8 8 8
11 10 10 10 11 12 13 13 13 14 14 13 12 11 11 11 11 12 11 9 8 8 7 6 4 3 2 1 1 2 4 5 4
13 13 13 12 13 13 13 13 13 13 13 12 12 14 15 15 15 14 13 12 12 9 7 8 9 12 9 8 9 7 4 4 3